Time,TemperatureF,DewpointF,PressureIn,WindDirection,WindDirectionDegrees,WindSpeedMPH,WindSpeedGustMPH,Humidity,HourlyPrecipIn,Conditions,Clouds,dailyrainin,SoftwareType,DateUTC
2013-03-29 00:01:00,56.7,51.9,29.83,ENE,68,3.5,3.5,84,0.00,RA,,0.00,WeatherDisplay:10.37,2013-03-28 22:01:00,
2013-03-29 00:03:00,56.5,51.7,29.83,ENE,68,3.5,3.5,84,0.00,RA,,0.00,WeatherDisplay:10.37,2013-03-28 22:03:00,
2013-03-29 00:05:00,56.5,51.7,29.83,ENE,68,2.9,2.9,84,0.00,RA,,0.00,WeatherDisplay:10.37,2013-03-28 22:05:00,
2013-03-29 00:07:00,56.5,51.7,29.83,ENE,68,3.5,3.5,84,0.00,RA,,0.00,WeatherDisplay:10.37,2013-03-28 22:07:00,
2013-03-29 00:08:00,56.5,51.7,29.83,ENE,68,2.3,0.0,84,0.00,RA,,0.00,WeatherDisplay:10.37,2013-03-28 22:08:00,
2013-03-29 00:10:00,56.5,51.7,29.83,ENE,68,2.3,2.3,84,0.00,CLR,,0.00,WeatherDisplay:10.37,2013-03-28 22:10:00,
2013-03-29 00:12:00,56.3,51.2,29.83,ENE,68,1.2,1.2,83,0.00,CLR,,0.00,WeatherDisplay:10.37,2013-03-28 22:12:00,
2013-03-29 00:13:00,56.3,51.2,29.83,ENE,68,1.2,1.2,83,0.00,CLR,,0.00,WeatherDisplay:10.37,2013-03-28 22:13:00,
2013-03-29 00:14:00,56.3,51.2,29.83,ENE,68,2.0,2.0,83,0.00,CLR,,0.00,WeatherDisplay:10.37,2013-03-28 22:14:00,
2013-03-29 00:15:00,56.3,51.2,29.83,ENE,68,2.3,2.3,83,0.00,CLR,,0.00,WeatherDisplay:10.37,2013-03-28 22:15:00,
2013-03-29 00:17:00,56.1,51.0,29.83,ENE,68,1.2,1.2,83,0.00,CLR,,0.00,WeatherDisplay:10.37,2013-03-28 22:17:00,
2013-03-29 00:18:00,56.1,51.0,29.83,ENE,68,0.0,0.0,83,0.00,CLR,,0.00,WeatherDisplay:10.37,2013-03-28 22:18:00,
2013-03-29 00:19:00,55.9,50.9,29.83,ENE,68,0.0,0.0,83,0.00,CLR,,0.00,WeatherDisplay:10.37,2013-03-28 22:19:00,
2013-03-29 00:21:00,55.9,50.9,29.83,ENE,68,0.0,0.0,83,0.00,CLR,,0.00,WeatherDisplay:10.37,2013-03-28 22:21:00,
2013-03-29 00:22:00,55.9,50.9,29.83,ENE,68,0.0,0.0,83,0.00,CLR,,0.00,WeatherDisplay:10.37,2013-03-28 22:22:00,
2013-03-29 00:23:00,55.8,50.7,29.83,ENE,68,0.0,0.0,83,0.00,CLR,,0.00,WeatherDisplay:10.37,2013-03-28 22:23:00,
2013-03-29 00:24:00,55.8,50.7,29.80,ENE,68,0.0,0.0,83,0.00,CLR,,0.00,WeatherDisplay:10.37,2013-03-28 22:24:00,
2013-03-29 00:26:00,55.8,50.7,29.80,ENE,68,0.0,0.0,83,0.00,CLR,,0.00,WeatherDisplay:10.37,2013-03-28 22:26:00,
2013-03-29 00:28:00,55.6,50.5,29.80,ENE,68,1.2,0.0,83,0.00,CLR,,0.00,WeatherDisplay:10.37,2013-03-28 22:28:00,
2013-03-29 00:29:00,55.6,50.5,29.80,ENE,68,1.2,0.0,83,0.00,CLR,,0.00,WeatherDisplay:10.37,2013-03-28 22:29:00,
2013-03-29 00:31:00,55.6,50.5,29.80,ENE,68,0.0,0.0,83,0.00,CLR,,0.00,WeatherDisplay:10.37,2013-03-28 22:31:00,
2013-03-29 00:33:00,55.4,50.3,29.80,ENE,68,1.2,0.0,83,0.00,CLR,,0.00,WeatherDisplay:10.37,2013-03-28 22:33:00,
2013-03-29 00:34:00,55.6,50.5,29.80,ENE,68,1.2,1.2,83,0.00,CLR,,0.00,WeatherDisplay:10.37,2013-03-28 22:34:00,
2013-03-29 00:36:00,55.6,50.5,29.80,ENE,68,1.2,1.2,83,0.00,CLR,,0.00,WeatherDisplay:10.37,2013-03-28 22:36:00,
2013-03-29 00:38:00,55.6,50.5,29.80,ENE,68,1.4,1.4,83,0.00,CLR,,0.00,WeatherDisplay:10.37,2013-03-28 22:38:00,
2013-03-29 00:39:00,55.6,50.8,29.80,ENE,68,2.3,2.3,84,0.00,CLR,,0.00,WeatherDisplay:10.37,2013-03-28 22:39:00,
2013-03-29 00:41:00,55.6,50.8,29.80,ENE,68,2.3,2.3,84,0.00,CLR,,0.00,WeatherDisplay:10.37,2013-03-28 22:41:00,
2013-03-29 00:43:00,55.6,50.8,29.80,ENE,68,1.2,1.4,84,0.00,CLR,,0.00,WeatherDisplay:10.37,2013-03-28 22:43:00,
2013-03-29 00:44:00,55.6,50.8,29.80,ENE,68,1.2,1.2,84,0.00,CLR,,0.00,WeatherDisplay:10.37,2013-03-28 22:44:00,
2013-03-29 00:46:00,55.6,50.8,29.80,ENE,68,1.2,1.2,84,0.00,CLR,,0.00,WeatherDisplay:10.37,2013-03-28 22:46:00,
2013-03-29 00:48:00,55.4,50.6,29.80,ENE,68,1.2,0.0,84,0.00,CLR,,0.00,WeatherDisplay:10.37,2013-03-28 22:48:00,
2013-03-29 00:49:00,55.4,50.6,29.80,ENE,68,1.4,0.0,84,0.00,CLR,,0.00,WeatherDisplay:10.37,2013-03-28 22:49:00,
2013-03-29 00:51:00,55.4,50.6,29.80,ENE,68,0.0,0.0,84,0.00,CLR,,0.00,WeatherDisplay:10.37,2013-03-28 22:51:00,
2013-03-29 00:53:00,55.2,50.5,29.80,ENE,68,0.0,0.0,84,0.00,CLR,,0.00,WeatherDisplay:10.37,2013-03-28 22:53:00,
2013-03-29 00:54:00,55.2,50.5,29.83,ENE,68,0.0,0.0,84,0.00,CLR,,0.00,WeatherDisplay:10.37,2013-03-28 22:54:00,
2013-03-29 00:57:00,55.0,50.3,29.83,ENE,68,0.0,0.0,84,0.00,CLR,,0.00,WeatherDisplay:10.37,2013-03-28 22:57:00,
2013-03-29 00:58:00,55.0,50.3,29.83,ENE,68,0.0,0.0,84,0.00,CLR,,0.00,WeatherDisplay:10.37,2013-03-28 22:58:00,
2013-03-29 01:00:00,55.0,50.3,29.83,ENE,68,0.0,0.0,84,0.00,CLR,,0.00,WeatherDisplay:10.37,2013-03-28 23:00:00,
2013-03-29 01:02:00,54.9,50.1,29.83,ENE,68,0.0,0.0,84,0.00,CLR,,0.00,WeatherDisplay:10.37,2013-03-28 23:02:00,
2013-03-29 01:03:00,54.7,49.9,29.83,ENE,68,0.0,0.0,84,0.00,CLR,,0.00,WeatherDisplay:10.37,2013-03-28 23:03:00,
2013-03-29 01:05:00,54.7,49.9,29.83,ENE,68,0.0,0.0,84,0.00,CLR,,0.00,WeatherDisplay:10.37,2013-03-28 23:05:00,
2013-03-29 01:07:00,54.7,50.3,29.83,ENE,68,1.2,0.0,85,0.00,CLR,,0.00,WeatherDisplay:10.37,2013-03-28 23:07:00,
2013-03-29 01:08:00,54.7,50.3,29.83,ENE,68,1.6,1.6,85,0.00,CLR,,0.00,WeatherDisplay:10.37,2013-03-28 23:08:00,
2013-03-29 01:10:00,54.9,50.4,29.80,ENE,68,1.2,1.4,85,0.00,CLR,,0.00,WeatherDisplay:10.37,2013-03-28 23:10:00,
2013-03-29 01:12:00,54.9,50.4,29.80,ENE,68,2.3,2.3,85,0.00,CLR,,0.00,WeatherDisplay:10.37,2013-03-28 23:12:00,
2013-03-29 01:14:00,54.9,50.4,29.80,ENE,68,1.2,1.2,85,0.00,CLR,,0.00,WeatherDisplay:10.37,2013-03-28 23:14:00,
2013-03-29 01:15:00,55.0,50.9,29.80,ENE,68,0.0,2.0,86,0.00,CLR,,0.00,WeatherDisplay:10.37,2013-03-28 23:15:00,
2013-03-29 01:17:00,55.0,50.9,29.80,ENE,68,0.0,0.0,86,0.00,CLR,,0.00,WeatherDisplay:10.37,2013-03-28 23:17:00,
2013-03-29 01:19:00,55.0,50.9,29.80,ENE,68,0.0,0.0,86,0.00,CLR,,0.00,WeatherDisplay:10.37,2013-03-28 23:19:00,
2013-03-29 01:20:00,55.0,50.9,29.80,ENE,68,0.0,0.0,86,0.00,CLR,,0.00,WeatherDisplay:10.37,2013-03-28 23:20:00,
2013-03-29 01:23:00,55.0,50.9,29.80,ENE,68,0.0,0.0,86,0.00,CLR,,0.00,WeatherDisplay:10.37,2013-03-28 23:23:00,
2013-03-29 01:24:00,54.9,50.8,29.80,ENE,68,0.0,0.0,86,0.00,CLR,,0.00,WeatherDisplay:10.37,2013-03-28 23:24:00,
2013-03-29 01:25:00,54.9,50.8,29.80,ENE,68,0.0,0.0,86,0.00,CLR,,0.00,WeatherDisplay:10.37,2013-03-28 23:25:00,
2013-03-29 01:28:00,55.0,50.9,29.80,ENE,68,1.6,0.0,86,0.00,CLR,,0.00,WeatherDisplay:10.37,2013-03-28 23:28:00,
2013-03-29 01:29:00,55.0,50.9,29.80,ENE,68,1.6,1.6,86,0.00,CLR,,0.00,WeatherDisplay:10.37,2013-03-28 23:29:00,
2013-03-29 01:30:00,55.0,50.9,29.80,ENE,68,2.3,2.3,86,0.00,CLR,,0.00,WeatherDisplay:10.37,2013-03-28 23:30:00,
2013-03-29 01:31:00,55.0,50.9,29.80,ENE,68,2.3,2.3,86,0.00,CLR,,0.00,WeatherDisplay:10.37,2013-03-28 23:31:00,
2013-03-29 01:33:00,55.0,51.2,29.80,ENE,68,2.4,2.4,87,0.00,CLR,,0.00,WeatherDisplay:10.37,2013-03-28 23:33:00,
2013-03-29 01:34:00,55.2,51.4,29.80,ENE,68,3.5,3.5,87,0.00,CLR,,0.00,WeatherDisplay:10.37,2013-03-28 23:34:00,
2013-03-29 01:35:00,55.2,51.4,29.80,ENE,68,2.3,2.3,87,0.00,CLR,,0.00,WeatherDisplay:10.37,2013-03-28 23:35:00,
2013-03-29 01:36:00,55.2,51.7,29.80,ENE,68,2.4,2.4,88,0.00,CLR,,0.00,WeatherDisplay:10.37,2013-03-28 23:36:00,
2013-03-29 01:38:00,55.2,51.7,29.80,ENE,68,3.5,3.5,88,0.00,CLR,,0.00,WeatherDisplay:10.37,2013-03-28 23:38:00,
2013-03-29 01:39:00,55.2,51.7,29.80,ENE,68,3.5,3.5,88,0.00,CLR,,0.00,WeatherDisplay:10.37,2013-03-28 23:39:00,
2013-03-29 01:41:00,55.2,52.0,29.80,ENE,68,2.3,2.4,89,0.00,CLR,,0.00,WeatherDisplay:10.37,2013-03-28 23:41:00,
2013-03-29 01:42:00,55.2,52.0,29.80,ENE,68,2.4,2.4,89,0.00,CLR,,0.00,WeatherDisplay:10.37,2013-03-28 23:42:00,
2013-03-29 01:43:00,55.4,52.2,29.80,ENE,68,2.4,2.4,89,0.00,CLR,,0.00,WeatherDisplay:10.37,2013-03-28 23:43:00,
2013-03-29 01:44:00,55.4,52.2,29.80,ENE,68,2.3,2.3,89,0.00,CLR,,0.00,WeatherDisplay:10.37,2013-03-28 23:44:00,
2013-03-29 01:46:00,55.4,52.2,29.80,ENE,68,2.3,2.3,89,0.00,CLR,,0.00,WeatherDisplay:10.37,2013-03-28 23:46:00,
2013-03-29 01:47:00,55.4,52.2,29.80,ENE,68,3.3,3.3,89,0.00,CLR,,0.00,WeatherDisplay:10.37,2013-03-28 23:47:00,
2013-03-29 01:48:00,55.4,52.5,29.80,ENE,68,3.5,3.5,90,0.00,CLR,,0.00,WeatherDisplay:10.37,2013-03-28 23:48:00,
2013-03-29 01:49:00,55.4,52.5,29.80,ENE,68,2.4,2.4,90,0.00,CLR,,0.00,WeatherDisplay:10.37,2013-03-28 23:49:00,
2013-03-29 01:51:00,55.4,52.5,29.80,ENE,68,2.3,2.3,90,0.00,CLR,,0.00,WeatherDisplay:10.37,2013-03-28 23:51:00,
2013-03-29 01:52:00,55.4,52.5,29.80,ENE,68,2.3,2.3,90,0.00,CLR,,0.00,WeatherDisplay:10.37,2013-03-28 23:52:00,
2013-03-29 01:53:00,55.4,52.5,29.80,ENE,68,2.0,2.0,90,0.00,CLR,,0.00,WeatherDisplay:10.37,2013-03-28 23:53:00,
2013-03-29 01:55:00,55.4,52.5,29.80,ENE,68,2.4,2.4,90,0.00,CLR,,0.00,WeatherDisplay:10.37,2013-03-28 23:55:00,
2013-03-29 01:56:00,55.4,52.2,29.80,ENE,68,2.3,2.3,89,0.00,CLR,,0.00,WeatherDisplay:10.37,2013-03-28 23:56:00,
2013-03-29 01:58:00,55.2,52.3,29.80,ENE,68,2.3,2.3,90,0.00,CLR,,0.00,WeatherDisplay:10.37,2013-03-28 23:58:00,
2013-03-29 02:00:00,55.2,52.3,29.80,ENE,68,1.6,1.6,90,0.00,CLR,,0.00,WeatherDisplay:10.37,2013-03-29 00:00:00,
2013-03-29 02:02:00,55.2,52.3,29.80,ENE,68,2.3,2.3,90,0.00,CLR,,0.00,WeatherDisplay:10.37,2013-03-29 00:02:00,
2013-03-29 02:03:00,55.2,52.3,29.80,ENE,68,2.4,2.4,90,0.00,CLR,,0.00,WeatherDisplay:10.37,2013-03-29 00:03:00,
2013-03-29 02:05:00,55.2,52.3,29.80,ENE,68,2.3,2.3,90,0.00,CLR,,0.00,WeatherDisplay:10.37,2013-03-29 00:05:00,
2013-03-29 02:07:00,55.2,52.3,29.80,ENE,68,2.6,2.6,90,0.00,CLR,,0.00,WeatherDisplay:10.37,2013-03-29 00:07:00,
2013-03-29 02:08:00,55.2,52.3,29.80,ENE,68,2.3,2.3,90,0.00,CLR,,0.00,WeatherDisplay:10.37,2013-03-29 00:08:00,
2013-03-29 02:10:00,55.2,52.3,29.80,ENE,68,2.3,2.3,90,0.00,CLR,,0.00,WeatherDisplay:10.37,2013-03-29 00:10:00,
2013-03-29 02:12:00,55.0,52.2,29.80,ENE,68,2.3,2.3,90,0.00,CLR,,0.00,WeatherDisplay:10.37,2013-03-29 00:12:00,
2013-03-29 02:13:00,55.0,52.2,29.80,ENE,68,2.9,2.9,90,0.00,CLR,,0.00,WeatherDisplay:10.37,2013-03-29 00:13:00,
2013-03-29 02:14:00,55.0,52.2,29.80,ENE,68,2.3,2.3,90,0.00,CLR,,0.00,WeatherDisplay:10.37,2013-03-29 00:14:00,
2013-03-29 02:15:00,55.0,52.2,29.80,ENE,68,2.3,2.3,90,0.00,CLR,,0.00,WeatherDisplay:10.37,2013-03-29 00:15:00,
2013-03-29 02:17:00,55.0,52.2,29.80,ENE,68,2.3,2.3,90,0.00,CLR,,0.00,WeatherDisplay:10.37,2013-03-29 00:17:00,
2013-03-29 02:18:00,55.0,52.2,29.80,ENE,68,2.4,2.4,90,0.00,CLR,,0.00,WeatherDisplay:10.37,2013-03-29 00:18:00,
2013-03-29 02:19:00,55.0,52.2,29.80,ENE,68,2.3,2.3,90,0.00,CLR,,0.00,WeatherDisplay:10.37,2013-03-29 00:19:00,
2013-03-29 02:20:00,55.0,52.2,29.80,ENE,68,2.3,2.3,90,0.00,CLR,,0.00,WeatherDisplay:10.37,2013-03-29 00:20:00,
2013-03-29 02:22:00,55.0,52.5,29.80,ENE,68,2.6,2.6,91,0.00,CLR,,0.00,WeatherDisplay:10.37,2013-03-29 00:22:00,
2013-03-29 02:23:00,55.0,52.5,29.80,ENE,68,2.3,2.3,91,0.00,CLR,,0.00,WeatherDisplay:10.37,2013-03-29 00:23:00,
2013-03-29 02:24:00,55.0,52.5,29.80,ENE,68,2.4,2.4,91,0.00,CLR,,0.00,WeatherDisplay:10.37,2013-03-29 00:24:00,
2013-03-29 02:25:00,55.0,52.5,29.80,ENE,68,2.3,2.3,91,0.00,CLR,,0.00,WeatherDisplay:10.37,2013-03-29 00:25:00,
2013-03-29 02:27:00,55.0,52.5,29.80,ENE,68,1.6,1.6,91,0.00,CLR,,0.00,WeatherDisplay:10.37,2013-03-29 00:27:00,
2013-03-29 02:29:00,55.0,52.5,29.80,ENE,68,1.6,1.6,91,0.00,CLR,,0.00,WeatherDisplay:10.37,2013-03-29 00:29:00,
2013-03-29 02:30:00,55.0,52.5,29.80,ENE,68,2.3,2.3,91,0.00,CLR,,0.00,WeatherDisplay:10.37,2013-03-29 00:30:00,
2013-03-29 02:32:00,55.0,52.5,29.80,ENE,68,2.3,2.3,91,0.00,CLR,,0.00,WeatherDisplay:10.37,2013-03-29 00:32:00,
2013-03-29 02:34:00,55.0,52.5,29.80,ENE,68,3.5,3.5,91,0.00,CLR,,0.00,WeatherDisplay:10.37,2013-03-29 00:34:00,
2013-03-29 02:35:00,55.0,52.5,29.80,ENE,68,3.5,3.5,91,0.00,CLR,,0.00,WeatherDisplay:10.37,2013-03-29 00:35:00,
2013-03-29 02:37:00,55.0,52.8,29.80,ENE,68,3.5,3.5,92,0.00,CLR,,0.00,WeatherDisplay:10.37,2013-03-29 00:37:00,
2013-03-29 02:39:00,55.0,52.8,29.80,NE,45,3.5,3.5,92,0.00,CLR,,0.00,WeatherDisplay:10.37,2013-03-29 00:39:00,
2013-03-29 02:40:00,54.9,52.6,29.80,ENE,68,4.6,4.6,92,0.00,CLR,,0.00,WeatherDisplay:10.37,2013-03-29 00:40:00,
2013-03-29 02:43:00,54.9,52.6,29.80,NE,45,3.6,3.6,92,0.00,CLR,,0.00,WeatherDisplay:10.37,2013-03-29 00:43:00,
2013-03-29 02:44:00,54.9,52.6,29.80,NE,45,3.5,3.5,92,0.00,CLR,,0.00,WeatherDisplay:10.37,2013-03-29 00:44:00,
2013-03-29 02:45:00,54.7,52.4,29.80,NE,45,2.3,2.3,92,0.00,CLR,,0.00,WeatherDisplay:10.37,2013-03-29 00:45:00,
2013-03-29 02:48:00,54.7,52.4,29.80,ENE,68,2.4,2.4,92,0.00,CLR,,0.00,WeatherDisplay:10.37,2013-03-29 00:48:00,
2013-03-29 02:49:00,54.7,52.4,29.80,ENE,68,2.3,2.3,92,0.00,CLR,,0.00,WeatherDisplay:10.37,2013-03-29 00:49:00,
2013-03-29 02:50:00,54.7,52.4,29.80,ENE,68,2.3,2.3,92,0.00,CLR,,0.00,WeatherDisplay:10.37,2013-03-29 00:50:00,
2013-03-29 02:53:00,54.7,52.4,29.80,ENE,68,3.3,3.3,92,0.00,CLR,,0.00,WeatherDisplay:10.37,2013-03-29 00:53:00,
2013-03-29 02:54:00,54.7,52.4,29.80,NE,45,3.5,3.5,92,0.00,CLR,,0.00,WeatherDisplay:10.37,2013-03-29 00:54:00,
2013-03-29 02:55:00,54.7,52.4,29.80,NE,45,2.3,2.3,92,0.00,CLR,,0.00,WeatherDisplay:10.37,2013-03-29 00:55:00,
2013-03-29 02:58:00,54.7,52.4,29.80,ENE,68,3.5,3.5,92,0.00,CLR,,0.00,WeatherDisplay:10.37,2013-03-29 00:58:00,
2013-03-29 02:59:00,54.5,52.2,29.80,ENE,68,2.3,2.3,92,0.00,CLR,,0.00,WeatherDisplay:10.37,2013-03-29 00:59:00,
2013-03-29 03:00:00,54.5,52.2,29.80,ENE,68,2.9,2.9,92,0.00,CLR,,0.00,WeatherDisplay:10.37,2013-03-29 01:00:00,
2013-03-29 03:01:00,54.5,52.2,29.80,ENE,68,2.4,2.4,92,0.00,CLR,,0.00,WeatherDisplay:10.37,2013-03-29 01:01:00,
2013-03-29 03:03:00,54.5,52.2,29.80,ENE,68,2.3,2.3,92,0.00,CLR,,0.00,WeatherDisplay:10.37,2013-03-29 01:03:00,
2013-03-29 03:04:00,54.5,52.5,29.80,ENE,68,2.6,2.6,93,0.00,CLR,,0.00,WeatherDisplay:10.37,2013-03-29 01:04:00,
2013-03-29 03:06:00,54.5,52.5,29.80,ENE,68,2.3,2.3,93,0.00,CLR,,0.00,WeatherDisplay:10.37,2013-03-29 01:06:00,
2013-03-29 03:08:00,54.5,52.5,29.80,ENE,68,3.6,3.6,93,0.00,CLR,,0.00,WeatherDisplay:10.37,2013-03-29 01:08:00,
2013-03-29 03:09:00,54.5,52.5,29.80,East,90,3.5,3.5,93,0.00,CLR,,0.00,WeatherDisplay:10.37,2013-03-29 01:09:00,
2013-03-29 03:11:00,54.5,52.5,29.80,ENE,68,2.3,2.3,93,0.00,CLR,,0.00,WeatherDisplay:10.37,2013-03-29 01:11:00,
2013-03-29 03:12:00,54.5,52.5,29.80,ENE,68,2.3,2.3,93,0.00,CLR,,0.00,WeatherDisplay:10.37,2013-03-29 01:12:00,
2013-03-29 03:13:00,54.5,52.5,29.80,ENE,68,2.3,2.3,93,0.00,CLR,,0.00,WeatherDisplay:10.37,2013-03-29 01:13:00,
2013-03-29 03:14:00,54.5,52.5,29.80,ENE,68,2.3,2.3,93,0.00,CLR,,0.00,WeatherDisplay:10.37,2013-03-29 01:14:00,
2013-03-29 03:17:00,54.5,52.5,29.80,ENE,68,2.3,2.3,93,0.00,CLR,,0.00,WeatherDisplay:10.37,2013-03-29 01:17:00,
2013-03-29 03:18:00,54.5,52.5,29.80,ENE,68,2.3,2.3,93,0.00,CLR,,0.00,WeatherDisplay:10.37,2013-03-29 01:18:00,
2013-03-29 03:19:00,54.5,52.5,29.80,ENE,68,1.2,0.0,93,0.00,CLR,,0.00,WeatherDisplay:10.37,2013-03-29 01:19:00,
2013-03-29 03:22:00,54.5,52.5,29.80,ENE,68,2.4,2.4,93,0.00,CLR,,0.00,WeatherDisplay:10.37,2013-03-29 01:22:00,
2013-03-29 03:23:00,54.5,52.5,29.80,ENE,68,2.3,2.3,93,0.00,CLR,,0.00,WeatherDisplay:10.37,2013-03-29 01:23:00,
2013-03-29 03:24:00,54.5,52.5,29.83,ENE,68,2.3,2.3,93,0.00,CLR,,0.00,WeatherDisplay:10.37,2013-03-29 01:24:00,
2013-03-29 03:28:00,54.3,52.3,29.83,NE,45,2.3,2.3,93,0.00,CLR,,0.00,WeatherDisplay:10.37,2013-03-29 01:28:00,
2013-03-29 03:29:00,54.3,52.3,29.83,NE,45,2.6,2.6,93,0.00,CLR,,0.00,WeatherDisplay:10.37,2013-03-29 01:29:00,
2013-03-29 03:30:00,54.3,52.3,29.83,ENE,68,2.4,2.4,93,0.00,CLR,,0.00,WeatherDisplay:10.37,2013-03-29 01:30:00,
2013-03-29 03:33:00,54.3,52.6,29.83,ENE,68,2.3,2.3,94,0.00,CLR,,0.00,WeatherDisplay:10.37,2013-03-29 01:33:00,
2013-03-29 03:34:00,54.3,52.6,29.83,ENE,68,2.3,2.3,94,0.00,CLR,,0.00,WeatherDisplay:10.37,2013-03-29 01:34:00,
2013-03-29 03:35:00,54.3,52.6,29.83,ENE,68,2.3,2.3,94,0.00,CLR,,0.00,WeatherDisplay:10.37,2013-03-29 01:35:00,
2013-03-29 03:38:00,54.3,52.6,29.83,ENE,68,2.6,2.6,94,0.00,CLR,,0.00,WeatherDisplay:10.37,2013-03-29 01:38:00,
2013-03-29 03:39:00,54.3,52.6,29.77,ENE,68,2.4,2.4,94,0.00,CLR,,0.00,WeatherDisplay:10.37,2013-03-29 01:39:00,
2013-03-29 03:40:00,54.3,52.6,29.77,ENE,68,2.3,2.4,94,0.00,CLR,,0.00,WeatherDisplay:10.37,2013-03-29 01:40:00,
2013-03-29 03:43:00,54.3,52.6,29.77,ENE,68,2.9,2.9,94,0.00,CLR,,0.00,WeatherDisplay:10.37,2013-03-29 01:43:00,
2013-03-29 03:44:00,54.3,52.6,29.77,ENE,68,2.3,2.3,94,0.00,CLR,,0.00,WeatherDisplay:10.37,2013-03-29 01:44:00,
2013-03-29 03:45:00,54.3,52.6,29.77,ENE,68,2.4,2.4,94,0.00,CLR,,0.00,WeatherDisplay:10.37,2013-03-29 01:45:00,
2013-03-29 03:48:00,54.3,52.9,29.77,NE,45,2.9,2.9,95,0.00,CLR,,0.00,WeatherDisplay:10.37,2013-03-29 01:48:00,
2013-03-29 03:49:00,54.3,52.9,29.77,NE,45,3.5,3.5,95,0.00,CLR,,0.00,WeatherDisplay:10.37,2013-03-29 01:49:00,
2013-03-29 03:50:00,54.3,52.9,29.77,NE,45,3.5,3.5,95,0.00,CLR,,0.00,WeatherDisplay:10.37,2013-03-29 01:50:00,
2013-03-29 03:54:00,54.1,52.7,29.80,ENE,68,3.5,3.5,95,0.00,CLR,,0.00,WeatherDisplay:10.37,2013-03-29 01:54:00,
2013-03-29 03:55:00,54.1,52.7,29.80,ENE,68,3.5,3.5,95,0.00,CLR,,0.00,WeatherDisplay:10.37,2013-03-29 01:55:00,
2013-03-29 03:59:00,54.1,52.7,29.80,NE,45,2.3,2.3,95,0.00,CLR,,0.00,WeatherDisplay:10.37,2013-03-29 01:59:00,
2013-03-29 04:00:00,54.1,52.7,29.80,NE,45,2.3,2.3,95,0.00,CLR,,0.00,WeatherDisplay:10.37,2013-03-29 02:00:00,
2013-03-29 04:04:00,54.1,53.0,29.80,NE,45,2.3,2.3,96,0.00,CLR,,0.00,WeatherDisplay:10.37,2013-03-29 02:04:00,
2013-03-29 04:05:00,54.1,53.0,29.80,NE,45,2.3,2.3,96,0.00,CLR,,0.00,WeatherDisplay:10.37,2013-03-29 02:05:00,
2013-03-29 04:09:00,54.0,52.8,29.80,ENE,68,1.2,1.2,96,0.00,CLR,,0.00,WeatherDisplay:10.37,2013-03-29 02:09:00,
2013-03-29 04:10:00,54.0,52.8,29.80,ENE,68,2.3,2.3,96,0.00,CLR,,0.00,WeatherDisplay:10.37,2013-03-29 02:10:00,
2013-03-29 04:11:00,54.0,52.8,29.80,ENE,68,2.3,2.3,96,0.00,CLR,,0.00,WeatherDisplay:10.37,2013-03-29 02:11:00,
2013-03-29 04:14:00,54.0,52.6,29.80,ENE,68,2.3,2.3,95,0.00,CLR,,0.00,WeatherDisplay:10.37,2013-03-29 02:14:00,
2013-03-29 04:15:00,54.0,52.6,29.80,ENE,68,2.3,2.3,95,0.00,CLR,,0.00,WeatherDisplay:10.37,2013-03-29 02:15:00,
2013-03-29 04:16:00,54.0,52.6,29.80,ENE,68,2.3,2.3,95,0.00,CLR,,0.00,WeatherDisplay:10.37,2013-03-29 02:16:00,
2013-03-29 04:19:00,54.0,52.8,29.80,ENE,68,3.1,3.1,96,0.00,CLR,,0.00,WeatherDisplay:10.37,2013-03-29 02:19:00,
2013-03-29 04:20:00,54.0,52.8,29.80,NNE,22,3.5,3.5,96,0.00,CLR,,0.00,WeatherDisplay:10.37,2013-03-29 02:20:00,
2013-03-29 04:21:00,54.0,52.8,29.80,ENE,68,3.5,3.5,96,0.00,CLR,,0.00,WeatherDisplay:10.37,2013-03-29 02:21:00,
2013-03-29 04:25:00,54.0,52.8,29.80,ENE,68,3.5,3.5,96,0.00,CLR,,0.00,WeatherDisplay:10.37,2013-03-29 02:25:00,
2013-03-29 04:26:00,54.0,52.8,29.80,ENE,68,3.5,3.5,96,0.00,CLR,,0.00,WeatherDisplay:10.37,2013-03-29 02:26:00,
2013-03-29 04:30:00,54.0,52.8,29.80,NE,45,2.6,2.6,96,0.00,CLR,,0.00,WeatherDisplay:10.37,2013-03-29 02:30:00,
2013-03-29 04:31:00,54.0,52.8,29.80,NE,45,2.4,2.4,96,0.00,CLR,,0.00,WeatherDisplay:10.37,2013-03-29 02:31:00,
2013-03-29 04:35:00,54.0,53.1,29.80,NE,45,2.3,2.3,97,0.00,CLR,,0.00,WeatherDisplay:10.37,2013-03-29 02:35:00,
2013-03-29 04:36:00,54.0,53.1,29.80,NE,45,2.3,2.3,97,0.00,CLR,,0.00,WeatherDisplay:10.37,2013-03-29 02:36:00,
2013-03-29 04:41:00,54.0,53.1,29.77,NE,45,3.6,3.6,97,0.00,CLR,,0.00,WeatherDisplay:10.37,2013-03-29 02:41:00,
2013-03-29 04:46:00,54.1,53.3,29.77,NE,45,4.0,4.0,97,0.00,CLR,,0.00,WeatherDisplay:10.37,2013-03-29 02:46:00,
2013-03-29 04:51:00,54.3,53.8,29.77,NNE,22,3.5,3.5,98,0.00,CLR,,0.00,WeatherDisplay:10.37,2013-03-29 02:51:00,
2013-03-29 04:52:00,54.3,53.8,29.77,NNE,22,3.5,3.5,98,0.00,CLR,,0.00,WeatherDisplay:10.37,2013-03-29 02:52:00,
2013-03-29 04:56:00,54.5,54.2,29.77,ENE,68,3.5,3.5,99,0.00,CLR,,0.00,WeatherDisplay:10.37,2013-03-29 02:56:00,
2013-03-29 04:57:00,54.5,54.2,29.77,ENE,68,2.4,2.4,99,0.00,CLR,,0.00,WeatherDisplay:10.37,2013-03-29 02:57:00,
2013-03-29 05:01:00,54.5,53.9,29.77,ENE,68,2.3,2.3,98,0.00,CLR,,0.00,WeatherDisplay:10.37,2013-03-29 03:01:00,
2013-03-29 05:02:00,54.7,54.1,29.77,ENE,68,2.3,2.3,98,0.00,CLR,,0.00,WeatherDisplay:10.37,2013-03-29 03:02:00,
2013-03-29 05:07:00,54.7,54.1,29.77,ENE,68,1.2,1.2,98,0.00,CLR,,0.00,WeatherDisplay:10.37,2013-03-29 03:07:00,
2013-03-29 05:08:00,54.7,54.1,29.77,ENE,68,1.2,0.0,98,0.00,CLR,,0.00,WeatherDisplay:10.37,2013-03-29 03:08:00,
2013-03-29 05:12:00,54.7,54.1,29.80,ENE,68,1.2,0.0,98,0.00,CLR,,0.00,WeatherDisplay:10.37,2013-03-29 03:12:00,
2013-03-29 05:13:00,54.7,54.1,29.80,ENE,68,1.2,0.0,98,0.00,CLR,,0.00,WeatherDisplay:10.37,2013-03-29 03:13:00,
2013-03-29 05:18:00,54.7,54.1,29.80,ENE,68,1.2,0.0,98,0.00,CLR,,0.00,WeatherDisplay:10.37,2013-03-29 03:18:00,
2013-03-29 05:23:00,54.7,53.8,29.80,ENE,68,2.3,2.3,97,0.00,CLR,,0.00,WeatherDisplay:10.37,2013-03-29 03:23:00,
2013-03-29 05:28:00,54.9,54.3,29.77,ENE,68,2.3,2.3,98,0.00,CLR,,0.00,WeatherDisplay:10.37,2013-03-29 03:28:00,
2013-03-29 05:33:00,54.9,54.3,29.77,ENE,68,1.6,1.6,98,0.00,CLR,,0.00,WeatherDisplay:10.37,2013-03-29 03:33:00,
2013-03-29 05:38:00,55.0,54.5,29.77,NE,45,3.5,3.5,98,0.00,CLR,,0.00,WeatherDisplay:10.37,2013-03-29 03:38:00,
2013-03-29 05:39:00,55.0,54.5,29.77,NE,45,2.3,2.3,98,0.00,CLR,,0.00,WeatherDisplay:10.37,2013-03-29 03:39:00,
2013-03-29 05:43:00,55.0,54.5,29.80,ENE,68,1.2,1.4,98,0.00,CLR,,0.00,WeatherDisplay:10.37,2013-03-29 03:43:00,
2013-03-29 05:44:00,55.0,54.5,29.80,ENE,68,1.4,1.4,98,0.00,CLR,,0.00,WeatherDisplay:10.37,2013-03-29 03:44:00,
2013-03-29 05:48:00,55.2,54.7,29.80,ENE,68,2.9,2.9,98,0.00,CLR,,0.00,WeatherDisplay:10.37,2013-03-29 03:48:00,
2013-03-29 05:49:00,55.2,54.7,29.80,ENE,68,2.3,2.6,98,0.00,CLR,,0.00,WeatherDisplay:10.37,2013-03-29 03:49:00,
2013-03-29 05:53:00,55.2,54.7,29.80,ENE,68,2.3,2.3,98,0.00,CLR,,0.00,WeatherDisplay:10.37,2013-03-29 03:53:00,
2013-03-29 05:54:00,55.2,54.7,29.80,ENE,68,2.3,2.3,98,0.00,CLR,,0.00,WeatherDisplay:10.37,2013-03-29 03:54:00,
2013-03-29 05:55:00,55.2,54.7,29.80,ENE,68,2.3,2.3,98,0.00,CLR,,0.00,WeatherDisplay:10.37,2013-03-29 03:55:00,
2013-03-29 05:58:00,55.2,54.7,29.80,ENE,68,3.3,3.3,98,0.00,CLR,,0.00,WeatherDisplay:10.37,2013-03-29 03:58:00,
2013-03-29 05:59:00,55.2,54.7,29.80,ENE,68,3.5,3.5,98,0.00,CLR,,0.00,WeatherDisplay:10.37,2013-03-29 03:59:00,
2013-03-29 06:00:00,55.2,54.7,29.80,ENE,68,3.5,3.5,98,0.00,CLR,,0.00,WeatherDisplay:10.37,2013-03-29 04:00:00,
2013-03-29 06:05:00,55.2,54.7,29.80,ENE,68,2.3,2.3,98,0.00,CLR,,0.00,WeatherDisplay:10.37,2013-03-29 04:05:00,
2013-03-29 06:10:00,55.2,54.7,29.80,NNE,22,3.5,3.5,98,0.00,CLR,,0.00,WeatherDisplay:10.37,2013-03-29 04:10:00,
2013-03-29 06:11:00,55.2,54.7,29.80,NE,45,2.3,2.3,98,0.00,CLR,,0.00,WeatherDisplay:10.37,2013-03-29 04:11:00,
2013-03-29 06:15:00,55.2,54.7,29.80,NE,45,3.5,3.5,98,0.00,CLR,,0.00,WeatherDisplay:10.37,2013-03-29 04:15:00,
2013-03-29 06:16:00,55.2,54.7,29.80,NE,45,3.5,3.5,98,0.00,CLR,,0.00,WeatherDisplay:10.37,2013-03-29 04:16:00,
2013-03-29 06:20:00,55.2,54.4,29.80,NE,45,2.3,2.3,97,0.00,CLR,,0.00,WeatherDisplay:10.37,2013-03-29 04:20:00,
2013-03-29 06:21:00,55.4,54.6,29.80,NE,45,2.3,2.3,97,0.00,CLR,,0.00,WeatherDisplay:10.37,2013-03-29 04:21:00,
2013-03-29 06:25:00,55.4,54.6,29.80,NE,45,1.2,1.2,97,0.00,CLR,,0.00,WeatherDisplay:10.37,2013-03-29 04:25:00,
2013-03-29 06:27:00,55.4,54.6,29.80,NE,45,2.2,2.2,97,0.00,CLR,,0.00,WeatherDisplay:10.37,2013-03-29 04:27:00,
2013-03-29 06:30:00,55.6,54.7,29.80,NE,45,2.3,2.3,97,0.00,CLR,,0.00,WeatherDisplay:10.37,2013-03-29 04:30:00,
2013-03-29 06:32:00,55.6,54.7,29.80,NE,45,2.3,2.3,97,0.00,CLR,,0.00,WeatherDisplay:10.37,2013-03-29 04:32:00,
2013-03-29 06:35:00,55.8,54.9,29.80,NE,45,2.3,2.3,97,0.00,CLR,,0.00,WeatherDisplay:10.37,2013-03-29 04:35:00,
2013-03-29 06:36:00,55.8,54.9,29.80,NE,45,2.3,2.3,97,0.00,CLR,,0.00,WeatherDisplay:10.37,2013-03-29 04:36:00,
2013-03-29 06:37:00,55.8,54.9,29.80,NE,45,2.3,2.3,97,0.00,CLR,,0.00,WeatherDisplay:10.37,2013-03-29 04:37:00,
2013-03-29 06:40:00,55.9,55.1,29.80,NE,45,1.2,0.0,97,0.00,CLR,,0.00,WeatherDisplay:10.37,2013-03-29 04:40:00,
2013-03-29 06:41:00,55.9,55.1,29.80,NE,45,1.2,0.0,97,0.00,CLR,,0.00,WeatherDisplay:10.37,2013-03-29 04:41:00,
2013-03-29 06:42:00,55.9,55.1,29.80,NE,45,1.2,0.0,97,0.00,CLR,,0.00,WeatherDisplay:10.37,2013-03-29 04:42:00,
2013-03-29 06:45:00,56.1,55.3,29.80,NE,45,0.0,0.0,97,0.00,CLR,,0.00,WeatherDisplay:10.37,2013-03-29 04:45:00,
2013-03-29 06:46:00,56.1,55.3,29.80,NE,45,0.0,0.0,97,0.00,CLR,,0.00,WeatherDisplay:10.37,2013-03-29 04:46:00,
2013-03-29 06:47:00,56.1,55.3,29.80,NE,45,0.0,0.0,97,0.00,CLR,,0.00,WeatherDisplay:10.37,2013-03-29 04:47:00,
2013-03-29 06:48:00,56.1,55.3,29.80,NE,45,0.0,0.0,97,0.00,CLR,,0.00,WeatherDisplay:10.37,2013-03-29 04:48:00,
2013-03-29 06:50:00,56.3,55.5,29.80,NE,45,0.0,0.0,97,0.00,CLR,,0.00,WeatherDisplay:10.37,2013-03-29 04:50:00,
2013-03-29 06:52:00,56.3,55.5,29.80,NE,45,0.0,0.0,97,0.00,CLR,,0.00,WeatherDisplay:10.37,2013-03-29 04:52:00,
2013-03-29 06:53:00,56.3,55.5,29.80,NE,45,0.0,0.0,97,0.00,CLR,,0.00,WeatherDisplay:10.37,2013-03-29 04:53:00,
2013-03-29 06:55:00,56.5,55.6,29.80,NE,45,0.0,0.0,97,0.00,CLR,,0.00,WeatherDisplay:10.37,2013-03-29 04:55:00,
2013-03-29 06:57:00,56.5,55.6,29.80,NE,45,0.0,0.0,97,0.00,CLR,,0.00,WeatherDisplay:10.37,2013-03-29 04:57:00,
2013-03-29 06:58:00,56.5,55.6,29.80,NE,45,0.0,0.0,97,0.00,CLR,,0.00,WeatherDisplay:10.37,2013-03-29 04:58:00,
2013-03-29 07:00:00,56.7,55.8,29.80,NE,45,0.0,0.0,97,0.00,CLR,,0.00,WeatherDisplay:10.37,2013-03-29 05:00:00,
2013-03-29 07:02:00,56.7,55.8,29.80,NE,45,0.0,0.0,97,0.00,CLR,,0.00,WeatherDisplay:10.37,2013-03-29 05:02:00,
2013-03-29 07:03:00,56.7,55.8,29.80,NE,45,0.0,0.0,97,0.00,CLR,,0.00,WeatherDisplay:10.37,2013-03-29 05:03:00,
2013-03-29 07:07:00,56.8,56.0,29.80,NE,45,1.4,0.0,97,0.00,CLR,,0.00,WeatherDisplay:10.37,2013-03-29 05:07:00,
2013-03-29 07:08:00,56.8,56.0,29.80,NE,45,2.0,2.0,97,0.00,CLR,,0.00,WeatherDisplay:10.37,2013-03-29 05:08:00,
2013-03-29 07:12:00,56.8,56.0,29.80,NE,45,2.9,2.9,97,0.00,CLR,,0.00,WeatherDisplay:10.37,2013-03-29 05:12:00,
2013-03-29 07:13:00,57.0,56.2,29.80,NE,45,2.3,2.4,97,0.00,CLR,,0.00,WeatherDisplay:10.37,2013-03-29 05:13:00,
2013-03-29 07:17:00,57.2,56.1,29.80,NE,45,2.6,2.6,96,0.00,CLR,,0.00,WeatherDisplay:10.37,2013-03-29 05:17:00,
2013-03-29 07:18:00,57.2,56.1,29.80,NNE,22,2.4,2.4,96,0.00,CLR,,0.00,WeatherDisplay:10.37,2013-03-29 05:18:00,
2013-03-29 07:23:00,57.4,56.2,29.80,NE,45,2.3,2.3,96,0.00,CLR,,0.00,WeatherDisplay:10.37,2013-03-29 05:23:00,
2013-03-29 07:28:00,57.6,56.4,29.83,NE,45,2.3,2.3,96,0.00,CLR,,0.00,WeatherDisplay:10.37,2013-03-29 05:28:00,
2013-03-29 07:29:00,57.7,56.6,29.83,NE,45,2.3,2.3,96,0.00,CLR,,0.00,WeatherDisplay:10.37,2013-03-29 05:29:00,
2013-03-29 07:33:00,57.9,56.8,29.83,NE,45,2.4,2.4,96,0.00,CLR,,0.00,WeatherDisplay:10.37,2013-03-29 05:33:00,
2013-03-29 07:34:00,58.1,56.7,29.83,NE,45,2.6,2.6,95,0.00,CLR,,0.00,WeatherDisplay:10.37,2013-03-29 05:34:00,
2013-03-29 07:38:00,58.1,56.7,29.83,NNE,22,2.9,2.9,95,0.00,CLR,,0.00,WeatherDisplay:10.37,2013-03-29 05:38:00,
2013-03-29 07:39:00,58.3,56.9,29.83,NNE,22,2.6,2.6,95,0.00,CLR,,0.00,WeatherDisplay:10.37,2013-03-29 05:39:00,
2013-03-29 07:44:00,58.6,56.9,29.83,NE,45,3.3,3.3,94,0.00,CLR,,0.00,WeatherDisplay:10.37,2013-03-29 05:44:00,
2013-03-29 07:49:00,59.0,57.3,29.83,NNE,22,1.4,1.4,94,0.00,CLR,,0.00,WeatherDisplay:10.37,2013-03-29 05:49:00,
2013-03-29 07:54:00,59.7,57.7,29.80,NE,45,2.3,2.3,93,0.00,CLR,,0.00,WeatherDisplay:10.37,2013-03-29 05:54:00,
2013-03-29 07:59:00,60.3,58.2,29.80,NNE,22,3.5,3.5,93,0.00,CLR,,0.00,WeatherDisplay:10.37,2013-03-29 05:59:00,
2013-03-29 08:00:00,60.4,58.4,29.80,NE,45,3.5,3.5,93,0.00,CLR,,0.00,WeatherDisplay:10.37,2013-03-29 06:00:00,
2013-03-29 08:04:00,61.2,58.8,29.80,NNE,22,3.5,3.5,92,0.00,CLR,,0.00,WeatherDisplay:10.37,2013-03-29 06:04:00,
2013-03-29 08:05:00,61.2,58.5,29.80,NNE,22,3.5,3.5,91,0.00,CLR,,0.00,WeatherDisplay:10.37,2013-03-29 06:05:00,
2013-03-29 08:09:00,61.9,58.9,29.80,NE,45,2.3,2.3,90,0.00,CLR,,0.00,WeatherDisplay:10.37,2013-03-29 06:09:00,
2013-03-29 08:10:00,61.9,58.9,29.80,NE,45,2.2,2.2,90,0.00,CLR,,0.00,WeatherDisplay:10.37,2013-03-29 06:10:00,
2013-03-29 08:14:00,62.8,58.9,29.80,NNE,22,2.4,2.4,87,0.00,CLR,,0.00,WeatherDisplay:10.37,2013-03-29 06:14:00,
2013-03-29 08:15:00,63.1,58.9,29.80,NNE,22,2.3,2.3,86,0.00,CLR,,0.00,WeatherDisplay:10.37,2013-03-29 06:15:00,
2013-03-29 08:19:00,64.0,59.4,29.80,NNE,22,2.4,2.4,85,0.00,CLR,,0.00,WeatherDisplay:10.37,2013-03-29 06:19:00,
2013-03-29 08:20:00,64.0,59.4,29.80,NNE,22,2.6,2.6,85,0.00,CLR,,0.00,WeatherDisplay:10.37,2013-03-29 06:20:00,
2013-03-29 08:24:00,64.2,58.9,29.80,NNW,338,2.3,2.3,83,0.00,CLR,,0.00,WeatherDisplay:10.37,2013-03-29 06:24:00,
2013-03-29 08:25:00,64.4,58.8,29.80,NNW,338,2.3,2.3,82,0.00,CLR,,0.00,WeatherDisplay:10.37,2013-03-29 06:25:00,
2013-03-29 08:30:00,64.0,56.3,29.80,WSW,248,0.0,0.0,76,0.00,CLR,,0.00,WeatherDisplay:10.37,2013-03-29 06:30:00,
2013-03-29 08:31:00,64.0,56.3,29.80,WSW,248,1.4,0.0,76,0.00,CLR,,0.00,WeatherDisplay:10.37,2013-03-29 06:31:00,
2013-03-29 08:35:00,64.2,56.9,29.80,WSW,248,1.4,0.0,77,0.00,CLR,,0.00,WeatherDisplay:10.37,2013-03-29 06:35:00,
2013-03-29 08:36:00,64.2,56.9,29.80,WSW,248,1.2,0.0,77,0.00,CLR,,0.00,WeatherDisplay:10.37,2013-03-29 06:36:00,
2013-03-29 08:40:00,64.0,55.6,29.80,WSW,248,2.3,2.3,74,0.00,CLR,,0.00,WeatherDisplay:10.37,2013-03-29 06:40:00,
2013-03-29 08:41:00,63.9,55.4,29.80,WSW,248,2.3,2.3,74,0.00,CLR,,0.00,WeatherDisplay:10.37,2013-03-29 06:41:00,
2013-03-29 08:45:00,64.2,55.4,29.80,WSW,248,0.0,0.0,73,0.00,CLR,,0.00,WeatherDisplay:10.37,2013-03-29 06:45:00,
2013-03-29 08:46:00,64.2,55.4,29.80,WSW,248,1.6,0.0,73,0.00,CLR,,0.00,WeatherDisplay:10.37,2013-03-29 06:46:00,
2013-03-29 08:47:00,64.2,55.4,29.80,WSW,248,1.6,0.0,73,0.00,CLR,,0.00,WeatherDisplay:10.37,2013-03-29 06:47:00,
2013-03-29 08:50:00,64.4,54.4,29.80,WSW,248,2.4,2.4,70,0.00,CLR,,0.00,WeatherDisplay:10.37,2013-03-29 06:50:00,
2013-03-29 08:51:00,64.4,54.4,29.80,WSW,248,2.0,2.0,70,0.00,CLR,,0.00,WeatherDisplay:10.37,2013-03-29 06:51:00,
2013-03-29 08:52:00,64.4,54.0,29.80,WSW,248,2.3,2.3,69,0.00,CLR,,0.00,WeatherDisplay:10.37,2013-03-29 06:52:00,
2013-03-29 08:55:00,65.1,54.7,29.83,NW,315,2.3,2.3,69,0.00,CLR,,0.00,WeatherDisplay:10.37,2013-03-29 06:55:00,
2013-03-29 08:56:00,65.3,54.5,29.83,NNW,338,2.3,2.3,68,0.00,CLR,,0.00,WeatherDisplay:10.37,2013-03-29 06:56:00,
2013-03-29 08:57:00,65.3,54.5,29.83,North,0,2.3,2.3,68,0.00,CLR,,0.00,WeatherDisplay:10.37,2013-03-29 06:57:00,
2013-03-29 09:00:00,65.8,54.2,29.83,ENE,68,2.3,2.3,66,0.00,CLR,,0.00,WeatherDisplay:10.37,2013-03-29 07:00:00,
2013-03-29 09:01:00,66.0,54.7,29.83,NE,45,2.3,2.3,67,0.00,CLR,,0.00,WeatherDisplay:10.37,2013-03-29 07:01:00,
2013-03-29 09:02:00,66.2,54.5,29.83,NE,45,2.3,2.3,66,0.00,CLR,,0.00,WeatherDisplay:10.37,2013-03-29 07:02:00,
2013-03-29 09:03:00,66.4,54.7,29.83,NE,45,2.3,2.3,66,0.00,CLR,,0.00,WeatherDisplay:10.37,2013-03-29 07:03:00,
2013-03-29 09:05:00,66.4,54.3,29.83,NNW,338,2.2,2.2,65,0.00,CLR,,0.00,WeatherDisplay:10.37,2013-03-29 07:05:00,
2013-03-29 09:07:00,66.6,54.4,29.83,NNW,338,2.3,2.3,65,0.00,CLR,,0.00,WeatherDisplay:10.37,2013-03-29 07:07:00,
2013-03-29 09:08:00,66.6,54.4,29.83,WNW,292,2.3,2.3,65,0.00,CLR,,0.00,WeatherDisplay:10.37,2013-03-29 07:08:00,
2013-03-29 09:11:00,67.3,55.1,29.83,NNW,338,2.3,2.3,65,0.00,CLR,,0.00,WeatherDisplay:10.37,2013-03-29 07:11:00,
2013-03-29 09:12:00,67.5,54.4,29.83,NNE,22,1.4,1.4,63,0.00,CLR,,0.00,WeatherDisplay:10.37,2013-03-29 07:12:00,
2013-03-29 09:13:00,67.5,54.0,29.83,ESE,112,1.2,1.2,62,0.00,CLR,,0.00,WeatherDisplay:10.37,2013-03-29 07:13:00,
2013-03-29 09:16:00,67.1,52.7,29.83,WNW,292,2.3,0.0,60,0.00,CLR,,0.00,WeatherDisplay:10.37,2013-03-29 07:16:00,
2013-03-29 09:17:00,67.3,52.9,29.83,NW,315,1.4,1.4,60,0.00,CLR,,0.00,WeatherDisplay:10.37,2013-03-29 07:17:00,
2013-03-29 09:18:00,67.3,52.9,29.83,SSE,158,2.3,2.3,60,0.00,CLR,,0.00,WeatherDisplay:10.37,2013-03-29 07:18:00,
2013-03-29 09:21:00,66.9,51.2,29.83,WSW,248,3.1,3.1,57,0.00,CLR,,0.00,WeatherDisplay:10.37,2013-03-29 07:21:00,
2013-03-29 09:22:00,66.9,49.2,29.83,SW,225,4.6,4.6,53,0.00,CLR,,0.00,WeatherDisplay:10.37,2013-03-29 07:22:00,
2013-03-29 09:23:00,66.9,47.7,29.83,WSW,248,3.5,3.5,50,0.00,CLR,,0.00,WeatherDisplay:10.37,2013-03-29 07:23:00,
2013-03-29 09:24:00,66.9,48.2,29.83,West,270,3.5,3.5,51,0.00,CLR,,0.00,WeatherDisplay:10.37,2013-03-29 07:24:00,
2013-03-29 09:26:00,67.1,48.4,29.83,SSW,202,2.3,2.3,51,0.00,CLR,,0.00,WeatherDisplay:10.37,2013-03-29 07:26:00,
2013-03-29 09:28:00,67.1,47.3,29.83,SSW,202,4.6,4.6,49,0.00,CLR,,0.00,WeatherDisplay:10.37,2013-03-29 07:28:00,
2013-03-29 09:29:00,66.7,46.4,29.83,SSE,158,3.5,3.5,48,0.00,CLR,,0.00,WeatherDisplay:10.37,2013-03-29 07:29:00,
2013-03-29 09:31:00,67.3,48.0,29.83,SSE,158,2.3,0.0,50,0.00,CLR,,0.00,WeatherDisplay:10.37,2013-03-29 07:31:00,
2013-03-29 09:33:00,67.5,48.2,29.83,ENE,68,2.3,2.3,50,0.00,CLR,,0.00,WeatherDisplay:10.37,2013-03-29 07:33:00,
2013-03-29 09:34:00,67.8,49.0,29.83,SSE,158,2.9,2.9,51,0.00,CLR,,0.00,WeatherDisplay:10.37,2013-03-29 07:34:00,
2013-03-29 09:37:00,67.3,46.4,29.83,SSW,202,4.6,4.6,47,0.00,CLR,,0.00,WeatherDisplay:10.37,2013-03-29 07:37:00,
2013-03-29 09:38:00,67.8,47.4,29.83,SSE,158,2.3,2.3,48,0.00,CLR,,0.00,WeatherDisplay:10.37,2013-03-29 07:38:00,
2013-03-29 09:39:00,68.4,48.5,29.80,SE,135,0.0,0.0,49,0.00,CLR,,0.00,WeatherDisplay:10.37,2013-03-29 07:39:00,
2013-03-29 09:40:00,68.9,49.5,29.80,SE,135,0.0,0.0,50,0.00,CLR,,0.00,WeatherDisplay:10.37,2013-03-29 07:40:00,
2013-03-29 09:42:00,69.1,49.1,29.80,SSE,158,5.9,0.0,49,0.00,CLR,,0.00,WeatherDisplay:10.37,2013-03-29 07:42:00,
2013-03-29 09:43:00,68.5,46.9,29.80,SSW,202,5.8,5.8,46,0.00,CLR,,0.00,WeatherDisplay:10.37,2013-03-29 07:43:00,
2013-03-29 09:44:00,68.4,46.2,29.80,SSW,202,3.5,3.5,45,0.00,CLR,,0.00,WeatherDisplay:10.37,2013-03-29 07:44:00,
2013-03-29 09:45:00,68.0,45.9,29.80,SSE,158,3.5,3.5,45,0.00,CLR,,0.00,WeatherDisplay:10.37,2013-03-29 07:45:00,
2013-03-29 09:47:00,68.4,46.8,29.80,SSE,158,2.9,2.9,46,0.00,CLR,,0.00,WeatherDisplay:10.37,2013-03-29 07:47:00,
2013-03-29 09:48:00,68.4,46.8,29.80,SE,135,4.6,4.6,46,0.00,CLR,,0.00,WeatherDisplay:10.37,2013-03-29 07:48:00,
2013-03-29 09:49:00,68.7,47.1,29.80,ESE,112,3.5,3.5,46,0.00,CLR,,0.00,WeatherDisplay:10.37,2013-03-29 07:49:00,
2013-03-29 09:50:00,68.7,47.1,29.80,ESE,112,3.5,3.5,46,0.00,CLR,,0.00,WeatherDisplay:10.37,2013-03-29 07:50:00,
2013-03-29 09:52:00,69.3,47.6,29.80,SSW,202,3.5,3.5,46,0.00,CLR,,0.00,WeatherDisplay:10.37,2013-03-29 07:52:00,
2013-03-29 09:53:00,69.3,47.6,29.80,South,180,5.8,5.8,46,0.00,CLR,,0.00,WeatherDisplay:10.37,2013-03-29 07:53:00,
2013-03-29 09:54:00,68.9,46.7,29.83,SSW,202,5.8,5.8,45,0.00,CLR,,0.00,WeatherDisplay:10.37,2013-03-29 07:54:00,
2013-03-29 09:55:00,68.4,45.6,29.83,SW,225,5.8,5.8,44,0.00,CLR,,0.00,WeatherDisplay:10.37,2013-03-29 07:55:00,
2013-03-29 09:57:00,68.0,45.9,29.83,SE,135,4.6,4.6,45,0.00,CLR,,0.00,WeatherDisplay:10.37,2013-03-29 07:57:00,
2013-03-29 09:59:00,68.4,46.2,29.83,ESE,112,2.3,2.3,45,0.00,CLR,,0.00,WeatherDisplay:10.37,2013-03-29 07:59:00,
2013-03-29 10:00:00,68.7,46.5,29.83,WSW,248,2.6,2.6,45,0.00,CLR,,0.00,WeatherDisplay:10.37,2013-03-29 08:00:00,
2013-03-29 10:03:00,68.2,46.0,29.83,West,270,4.6,4.6,45,0.00,CLR,,0.00,WeatherDisplay:10.37,2013-03-29 08:03:00,
2013-03-29 10:04:00,68.2,46.0,29.83,WSW,248,3.3,3.3,45,0.00,CLR,,0.00,WeatherDisplay:10.37,2013-03-29 08:04:00,
2013-03-29 10:05:00,67.8,45.7,29.83,WSW,248,3.5,3.5,45,0.00,CLR,,0.00,WeatherDisplay:10.37,2013-03-29 08:05:00,
2013-03-29 10:08:00,68.4,46.8,29.83,SW,225,1.2,0.0,46,0.00,CLR,,0.00,WeatherDisplay:10.37,2013-03-29 08:08:00,
2013-03-29 10:09:00,68.2,46.0,29.83,West,270,2.3,2.3,45,0.00,CLR,,0.00,WeatherDisplay:10.37,2013-03-29 08:09:00,
2013-03-29 10:10:00,68.0,45.9,29.83,WSW,248,3.3,3.3,45,0.00,CLR,,0.00,WeatherDisplay:10.37,2013-03-29 08:10:00,
2013-03-29 10:13:00,67.8,45.7,29.83,South,180,4.6,4.6,45,0.00,CLR,,0.00,WeatherDisplay:10.37,2013-03-29 08:13:00,
2013-03-29 10:14:00,68.0,46.4,29.83,South,180,3.1,3.1,46,0.00,CLR,,0.00,WeatherDisplay:10.37,2013-03-29 08:14:00,
2013-03-29 10:15:00,68.0,45.9,29.83,SW,225,4.0,4.0,45,0.00,CLR,,0.00,WeatherDisplay:10.37,2013-03-29 08:15:00,
2013-03-29 10:16:00,67.6,45.5,29.83,SSW,202,4.3,4.3,45,0.00,CLR,,0.00,WeatherDisplay:10.37,2013-03-29 08:16:00,
2013-03-29 10:18:00,67.3,45.2,29.83,SW,225,4.6,4.6,45,0.00,CLR,,0.00,WeatherDisplay:10.37,2013-03-29 08:18:00,
2013-03-29 10:19:00,67.1,45.0,29.83,South,180,6.9,6.9,45,0.00,CLR,,0.00,WeatherDisplay:10.37,2013-03-29 08:19:00,
2013-03-29 10:21:00,66.9,44.9,29.83,WSW,248,3.5,3.5,45,0.00,CLR,,0.00,WeatherDisplay:10.37,2013-03-29 08:21:00,
2013-03-29 10:23:00,67.5,45.9,29.83,SSW,202,3.6,3.6,46,0.00,CLR,,0.00,WeatherDisplay:10.37,2013-03-29 08:23:00,
2013-03-29 10:24:00,67.5,45.9,29.83,South,180,4.6,4.6,46,0.00,CLR,,0.00,WeatherDisplay:10.37,2013-03-29 08:24:00,
2013-03-29 10:26:00,67.6,46.1,29.83,SSW,202,4.6,4.6,46,0.00,CLR,,0.00,WeatherDisplay:10.37,2013-03-29 08:26:00,
2013-03-29 10:27:00,67.6,46.1,29.83,WSW,248,4.6,4.6,46,0.00,CLR,,0.00,WeatherDisplay:10.37,2013-03-29 08:27:00,
2013-03-29 10:28:00,68.0,46.4,29.83,SSW,202,4.6,4.6,46,0.00,CLR,,0.00,WeatherDisplay:10.37,2013-03-29 08:28:00,
2013-03-29 10:30:00,68.4,46.2,29.83,SSE,158,4.6,4.6,45,0.00,CLR,,0.00,WeatherDisplay:10.37,2013-03-29 08:30:00,
2013-03-29 10:32:00,68.2,46.0,29.83,SSE,158,4.6,4.6,45,0.00,CLR,,0.00,WeatherDisplay:10.37,2013-03-29 08:32:00,
2013-03-29 10:34:00,68.5,46.3,29.83,WSW,248,3.5,3.5,45,0.00,CLR,,0.00,WeatherDisplay:10.37,2013-03-29 08:34:00,
2013-03-29 10:35:00,68.9,47.3,29.83,SW,225,3.5,3.5,46,0.00,CLR,,0.00,WeatherDisplay:10.37,2013-03-29 08:35:00,
2013-03-29 10:37:00,68.9,46.7,29.83,WSW,248,5.8,5.8,45,0.00,CLR,,0.00,WeatherDisplay:10.37,2013-03-29 08:37:00,
2013-03-29 10:39:00,68.7,46.5,29.83,WSW,248,3.5,3.5,45,0.00,CLR,,0.00,WeatherDisplay:10.37,2013-03-29 08:39:00,
2013-03-29 10:40:00,68.7,46.5,29.83,WSW,248,6.0,6.0,45,0.00,CLR,,0.00,WeatherDisplay:10.37,2013-03-29 08:40:00,
2013-03-29 10:42:00,69.8,47.5,29.83,SSW,202,2.4,2.4,45,0.00,CLR,,0.00,WeatherDisplay:10.37,2013-03-29 08:42:00,
2013-03-29 10:43:00,69.8,47.5,29.83,WNW,292,2.9,2.9,45,0.00,CLR,,0.00,WeatherDisplay:10.37,2013-03-29 08:43:00,
2013-03-29 10:44:00,69.8,47.5,29.83,WSW,248,6.4,6.4,45,0.00,CLR,,0.00,WeatherDisplay:10.37,2013-03-29 08:44:00,
2013-03-29 10:45:00,69.3,46.4,29.83,WSW,248,6.9,6.9,44,0.00,CLR,,0.00,WeatherDisplay:10.37,2013-03-29 08:45:00,
2013-03-29 10:47:00,69.3,46.4,29.83,SSW,202,5.8,5.8,44,0.00,CLR,,0.00,WeatherDisplay:10.37,2013-03-29 08:47:00,
2013-03-29 10:48:00,69.3,46.4,29.83,West,270,5.8,5.8,44,0.00,CLR,,0.00,WeatherDisplay:10.37,2013-03-29 08:48:00,
2013-03-29 10:49:00,69.3,46.4,29.83,WSW,248,3.5,3.6,44,0.00,CLR,,0.00,WeatherDisplay:10.37,2013-03-29 08:49:00,
2013-03-29 10:50:00,69.3,46.4,29.83,SSE,158,3.5,3.5,44,0.00,CLR,,0.00,WeatherDisplay:10.37,2013-03-29 08:50:00,
2013-03-29 10:53:00,69.1,46.2,29.83,WSW,248,5.8,5.8,44,0.00,CLR,,0.00,WeatherDisplay:10.37,2013-03-29 08:53:00,
2013-03-29 10:54:00,68.7,45.3,29.83,West,270,6.9,6.9,43,0.00,CLR,,0.00,WeatherDisplay:10.37,2013-03-29 08:54:00,
2013-03-29 10:55:00,68.5,45.1,29.83,WSW,241,6.0,7.0,43,0.00,CLR,,0.00,WeatherDisplay:10.37,2013-03-29 08:55:00,
2013-03-29 10:58:00,68.9,46.1,29.83,WSW,248,4.6,4.6,44,0.00,CLR,,0.00,WeatherDisplay:10.37,2013-03-29 08:58:00,
2013-03-29 10:59:00,69.1,46.2,29.83,WSW,248,4.0,4.0,44,0.00,CLR,,0.00,WeatherDisplay:10.37,2013-03-29 08:59:00,
2013-03-29 11:00:00,69.1,46.2,29.83,WSW,248,3.6,3.6,44,0.00,CLR,,0.00,WeatherDisplay:10.37,2013-03-29 09:00:00,
2013-03-29 11:03:00,68.4,45.6,29.83,South,180,5.8,5.8,44,0.00,CLR,,0.00,WeatherDisplay:10.37,2013-03-29 09:03:00,
2013-03-29 11:05:00,68.4,45.6,29.83,West,270,5.4,5.4,44,0.00,CLR,,0.00,WeatherDisplay:10.37,2013-03-29 09:05:00,
2013-03-29 11:08:00,68.7,45.9,29.83,WSW,248,5.8,5.8,44,0.00,CLR,,0.00,WeatherDisplay:10.37,2013-03-29 09:08:00,
2013-03-29 11:10:00,68.9,46.7,29.83,WSW,248,3.5,3.5,45,0.00,CLR,,0.00,WeatherDisplay:10.37,2013-03-29 09:10:00,
2013-03-29 11:13:00,69.3,47.0,29.83,West,270,5.8,5.8,45,0.00,CLR,,0.00,WeatherDisplay:10.37,2013-03-29 09:13:00,
2013-03-29 11:14:00,69.4,47.2,29.83,WSW,248,6.7,6.7,45,0.00,CLR,,0.00,WeatherDisplay:10.37,2013-03-29 09:14:00,
2013-03-29 11:15:00,69.1,46.2,29.83,WNW,292,7.8,7.8,44,0.00,CLR,,0.00,WeatherDisplay:10.37,2013-03-29 09:15:00,
2013-03-29 11:18:00,68.9,46.1,29.83,SSW,202,4.9,4.9,44,0.00,CLR,,0.00,WeatherDisplay:10.37,2013-03-29 09:18:00,
2013-03-29 11:19:00,68.9,46.1,29.83,SW,225,4.6,4.6,44,0.00,CLR,,0.00,WeatherDisplay:10.37,2013-03-29 09:19:00,
2013-03-29 11:20:00,69.1,46.2,29.83,WSW,248,4.6,4.6,44,0.00,CLR,,0.00,WeatherDisplay:10.37,2013-03-29 09:20:00,
2013-03-29 11:21:00,69.6,47.3,29.83,West,270,5.8,5.8,45,0.00,CLR,,0.00,WeatherDisplay:10.37,2013-03-29 09:21:00,
2013-03-29 11:24:00,69.3,46.4,29.83,WSW,248,5.8,5.8,44,0.00,CLR,,0.00,WeatherDisplay:10.37,2013-03-29 09:24:00,
2013-03-29 11:25:00,69.1,46.2,29.83,WSW,248,5.8,5.8,44,0.00,CLR,,0.00,WeatherDisplay:10.37,2013-03-29 09:25:00,
2013-03-29 11:27:00,69.1,46.2,29.83,SSW,202,5.8,5.8,44,0.00,CLR,,0.00,WeatherDisplay:10.37,2013-03-29 09:27:00,
2013-03-29 11:29:00,69.1,46.2,29.83,WNW,292,5.8,5.8,44,0.00,CLR,,0.00,WeatherDisplay:10.37,2013-03-29 09:29:00,
2013-03-29 11:30:00,69.3,46.4,29.83,WSW,248,5.8,5.8,44,0.00,CLR,,0.00,WeatherDisplay:10.37,2013-03-29 09:30:00,
2013-03-29 11:32:00,68.9,46.1,29.83,SSW,202,5.8,5.8,44,0.00,CLR,,0.00,WeatherDisplay:10.37,2013-03-29 09:32:00,
2013-03-29 11:34:00,69.1,46.2,29.83,SSW,202,8.1,8.1,44,0.00,CLR,,0.00,WeatherDisplay:10.37,2013-03-29 09:34:00,
2013-03-29 11:35:00,68.9,46.1,29.83,SSW,202,8.1,8.1,44,0.00,CLR,,0.00,WeatherDisplay:10.37,2013-03-29 09:35:00,
2013-03-29 11:37:00,69.1,46.2,29.83,WSW,248,5.8,5.8,44,0.00,CLR,,0.00,WeatherDisplay:10.37,2013-03-29 09:37:00,
2013-03-29 11:39:00,69.4,46.6,29.83,SSE,158,5.8,5.8,44,0.00,CLR,,0.00,WeatherDisplay:10.37,2013-03-29 09:39:00,
2013-03-29 11:40:00,69.8,46.9,29.83,SSW,202,5.8,5.8,44,0.00,CLR,,0.00,WeatherDisplay:10.37,2013-03-29 09:40:00,
2013-03-29 11:41:00,70.0,47.1,29.83,SW,225,5.6,5.6,44,0.00,CLR,,0.00,WeatherDisplay:10.37,2013-03-29 09:41:00,
2013-03-29 11:42:00,70.0,47.1,29.83,SSW,202,5.8,5.8,44,0.00,CLR,,0.00,WeatherDisplay:10.37,2013-03-29 09:42:00,
2013-03-29 11:44:00,70.0,46.4,29.83,SSW,202,5.8,5.8,43,0.00,CLR,,0.00,WeatherDisplay:10.37,2013-03-29 09:44:00,
2013-03-29 11:45:00,70.0,46.4,29.83,South,180,5.8,5.8,43,0.00,CLR,,0.00,WeatherDisplay:10.37,2013-03-29 09:45:00,
2013-03-29 11:47:00,70.7,47.7,29.83,WNW,292,4.6,4.6,44,0.00,CLR,,0.00,WeatherDisplay:10.37,2013-03-29 09:47:00,
2013-03-29 11:49:00,71.1,47.4,29.83,SSW,202,8.1,8.1,43,0.00,CLR,,0.00,WeatherDisplay:10.37,2013-03-29 09:49:00,
2013-03-29 11:50:00,71.1,47.4,29.83,SSW,202,8.1,8.1,43,0.00,CLR,,0.00,WeatherDisplay:10.37,2013-03-29 09:50:00,
2013-03-29 11:52:00,70.7,47.1,29.83,SW,225,2.9,3.1,43,0.00,CLR,,0.00,WeatherDisplay:10.37,2013-03-29 09:52:00,
2013-03-29 11:55:00,70.3,46.8,29.83,WSW,248,5.8,5.8,43,0.00,CLR,,0.00,WeatherDisplay:10.37,2013-03-29 09:55:00,
2013-03-29 11:57:00,70.2,46.6,29.83,SSW,202,8.1,8.1,43,0.00,CLR,,0.00,WeatherDisplay:10.37,2013-03-29 09:57:00,
2013-03-29 12:00:00,70.3,46.8,29.83,WSW,248,4.9,4.9,43,0.00,CLR,,0.00,WeatherDisplay:10.37,2013-03-29 10:00:00,
2013-03-29 12:02:00,70.0,45.8,29.83,SSW,202,5.8,5.8,42,0.00,CLR,,0.00,WeatherDisplay:10.37,2013-03-29 10:02:00,
2013-03-29 12:05:00,69.3,45.8,29.83,WSW,248,8.1,8.1,43,0.00,CLR,,0.00,WeatherDisplay:10.37,2013-03-29 10:05:00,
2013-03-29 12:08:00,69.6,46.7,29.83,West,270,4.5,4.5,44,0.00,CLR,,0.00,WeatherDisplay:10.37,2013-03-29 10:08:00,
2013-03-29 12:10:00,69.8,46.3,29.83,WSW,248,6.9,6.9,43,0.00,CLR,,0.00,WeatherDisplay:10.37,2013-03-29 10:10:00,
2013-03-29 12:13:00,69.6,46.1,29.83,SSE,158,4.6,4.6,43,0.00,CLR,,0.00,WeatherDisplay:10.37,2013-03-29 10:13:00,
2013-03-29 12:15:00,69.8,46.3,29.83,SSE,158,5.8,5.8,43,0.00,CLR,,0.00,WeatherDisplay:10.37,2013-03-29 10:15:00,
2013-03-29 12:18:00,70.0,46.4,29.83,SSW,202,8.1,8.1,43,0.00,CLR,,0.00,WeatherDisplay:10.37,2013-03-29 10:18:00,
2013-03-29 12:20:00,69.3,45.8,29.83,SSW,202,5.8,5.8,43,0.00,CLR,,0.00,WeatherDisplay:10.37,2013-03-29 10:20:00,
2013-03-29 12:21:00,69.3,45.8,29.83,SSW,202,5.8,5.8,43,0.00,CLR,,0.00,WeatherDisplay:10.37,2013-03-29 10:21:00,
2013-03-29 12:23:00,70.0,46.4,29.83,SSW,202,4.6,4.6,43,0.00,CLR,,0.00,WeatherDisplay:10.37,2013-03-29 10:23:00,
2013-03-29 12:24:00,70.3,46.8,29.83,WSW,248,5.8,5.8,43,0.00,CLR,,0.00,WeatherDisplay:10.37,2013-03-29 10:24:00,
2013-03-29 12:25:00,70.5,46.9,29.83,West,270,3.5,3.5,43,0.00,CLR,,0.00,WeatherDisplay:10.37,2013-03-29 10:25:00,
2013-03-29 12:26:00,70.5,46.3,29.83,WSW,248,3.5,3.5,42,0.00,CLR,,0.00,WeatherDisplay:10.37,2013-03-29 10:26:00,
2013-03-29 12:28:00,70.3,45.5,29.83,SW,225,6.9,6.9,41,0.00,CLR,,0.00,WeatherDisplay:10.37,2013-03-29 10:28:00,
2013-03-29 12:29:00,70.2,45.4,29.83,SW,225,4.9,4.9,41,0.00,CLR,,0.00,WeatherDisplay:10.37,2013-03-29 10:29:00,
2013-03-29 12:30:00,70.3,46.2,29.83,West,270,4.6,4.6,42,0.00,CLR,,0.00,WeatherDisplay:10.37,2013-03-29 10:30:00,
2013-03-29 12:31:00,70.5,46.3,29.83,West,270,4.3,4.3,42,0.00,CLR,,0.00,WeatherDisplay:10.37,2013-03-29 10:31:00,
2013-03-29 12:33:00,70.2,45.4,29.83,SSW,202,8.1,8.1,41,0.00,CLR,,0.00,WeatherDisplay:10.37,2013-03-29 10:33:00,
2013-03-29 12:34:00,69.8,44.4,29.83,SSW,202,6.9,6.9,40,0.00,CLR,,0.00,WeatherDisplay:10.37,2013-03-29 10:34:00,
2013-03-29 12:36:00,69.8,46.3,29.83,SSE,158,5.8,5.8,43,0.00,CLR,,0.00,WeatherDisplay:10.37,2013-03-29 10:36:00,
2013-03-29 12:37:00,69.8,45.7,29.83,WSW,248,4.6,4.6,42,0.00,CLR,,0.00,WeatherDisplay:10.37,2013-03-29 10:37:00,
2013-03-29 12:39:00,69.8,45.7,29.83,SW,225,6.2,6.2,42,0.00,CLR,,0.00,WeatherDisplay:10.37,2013-03-29 10:39:00,
2013-03-29 12:42:00,69.3,45.8,29.83,WSW,248,5.8,5.8,43,0.00,CLR,,0.00,WeatherDisplay:10.37,2013-03-29 10:42:00,
2013-03-29 12:44:00,69.4,46.0,29.83,South,180,5.8,5.8,43,0.00,CLR,,0.00,WeatherDisplay:10.37,2013-03-29 10:44:00,
2013-03-29 12:48:00,69.3,46.4,29.83,South,180,5.8,5.8,44,0.00,CLR,,0.00,WeatherDisplay:10.37,2013-03-29 10:48:00,
2013-03-29 12:49:00,69.8,46.3,29.83,SW,225,4.6,4.6,43,0.00,CLR,,0.00,WeatherDisplay:10.37,2013-03-29 10:49:00,
2013-03-29 12:53:00,68.7,45.9,29.83,SSW,202,6.9,6.9,44,0.00,CLR,,0.00,WeatherDisplay:10.37,2013-03-29 10:53:00,
2013-03-29 12:54:00,68.7,45.9,29.83,SW,225,6.9,6.9,44,0.00,CLR,,0.00,WeatherDisplay:10.37,2013-03-29 10:54:00,
2013-03-29 12:55:00,69.1,46.2,29.83,WSW,248,4.6,4.6,44,0.00,CLR,,0.00,WeatherDisplay:10.37,2013-03-29 10:55:00,
2013-03-29 12:58:00,69.3,46.4,29.83,SSE,158,8.1,8.1,44,0.00,CLR,,0.00,WeatherDisplay:10.37,2013-03-29 10:58:00,
2013-03-29 12:59:00,69.3,46.4,29.83,SSE,158,8.1,8.1,44,0.00,CLR,,0.00,WeatherDisplay:10.37,2013-03-29 10:59:00,
2013-03-29 13:00:00,69.1,45.6,29.83,SW,225,5.8,5.8,43,0.00,CLR,,0.00,WeatherDisplay:10.37,2013-03-29 11:00:00,
2013-03-29 13:03:00,70.2,46.6,29.83,SE,135,3.5,0.0,43,0.00,CLR,,0.00,WeatherDisplay:10.37,2013-03-29 11:03:00,
2013-03-29 13:04:00,70.5,46.9,29.83,NE,45,3.5,0.0,43,0.00,CLR,,0.00,WeatherDisplay:10.37,2013-03-29 11:04:00,
2013-03-29 13:05:00,70.9,47.3,29.83,SE,135,4.9,4.9,43,0.00,CLR,,0.00,WeatherDisplay:10.37,2013-03-29 11:05:00,
2013-03-29 13:09:00,71.2,47.6,29.83,WSW,248,4.3,4.3,43,0.00,CLR,,0.00,WeatherDisplay:10.37,2013-03-29 11:09:00,
2013-03-29 13:10:00,71.1,46.2,29.80,WNW,292,4.6,4.6,41,0.00,CLR,,0.00,WeatherDisplay:10.37,2013-03-29 11:10:00,
2013-03-29 13:14:00,71.4,46.5,29.80,WSW,248,5.8,5.8,41,0.00,CLR,,0.00,WeatherDisplay:10.37,2013-03-29 11:14:00,
2013-03-29 13:15:00,71.6,46.0,29.80,WSW,248,4.0,4.0,40,0.00,CLR,,0.00,WeatherDisplay:10.37,2013-03-29 11:15:00,
2013-03-29 13:19:00,71.8,46.2,29.80,WSW,248,5.8,5.8,40,0.00,CLR,,0.00,WeatherDisplay:10.37,2013-03-29 11:19:00,
2013-03-29 13:21:00,71.2,45.0,29.80,WSW,248,5.8,5.8,39,0.00,CLR,,0.00,WeatherDisplay:10.37,2013-03-29 11:21:00,
2013-03-29 13:24:00,71.4,45.8,29.80,SSE,158,3.5,3.8,40,0.00,CLR,,0.00,WeatherDisplay:10.37,2013-03-29 11:24:00,
2013-03-29 13:26:00,71.1,44.8,29.80,SSW,202,5.4,5.4,39,0.00,CLR,,0.00,WeatherDisplay:10.37,2013-03-29 11:26:00,
2013-03-29 13:29:00,71.1,44.8,29.80,SSW,202,4.6,4.6,39,0.00,CLR,,0.00,WeatherDisplay:10.37,2013-03-29 11:29:00,
2013-03-29 13:32:00,70.5,45.0,29.80,WSW,248,4.6,4.6,40,0.00,CLR,,0.00,WeatherDisplay:10.37,2013-03-29 11:32:00,
2013-03-29 13:34:00,71.1,46.2,29.80,SSE,158,8.1,8.1,41,0.00,CLR,,0.00,WeatherDisplay:10.37,2013-03-29 11:34:00,
2013-03-29 13:35:00,70.7,45.2,29.80,WSW,248,8.1,8.1,40,0.00,CLR,,0.00,WeatherDisplay:10.37,2013-03-29 11:35:00,
2013-03-29 13:37:00,70.7,45.2,29.80,South,180,6.9,6.9,40,0.00,CLR,,0.00,WeatherDisplay:10.37,2013-03-29 11:37:00,
2013-03-29 13:39:00,70.7,45.2,29.80,SSE,158,7.4,7.4,40,0.00,CLR,,0.00,WeatherDisplay:10.37,2013-03-29 11:39:00,
2013-03-29 13:40:00,70.2,45.4,29.80,South,180,6.9,6.9,41,0.00,CLR,,0.00,WeatherDisplay:10.37,2013-03-29 11:40:00,
2013-03-29 13:42:00,70.9,47.3,29.80,SSE,158,3.5,3.5,43,0.00,CLR,,0.00,WeatherDisplay:10.37,2013-03-29 11:42:00,
2013-03-29 13:44:00,71.1,46.8,29.80,South,180,4.0,4.0,42,0.00,CLR,,0.00,WeatherDisplay:10.37,2013-03-29 11:44:00,
2013-03-29 13:45:00,71.1,46.8,29.80,South,180,4.0,4.0,42,0.00,CLR,,0.00,WeatherDisplay:10.37,2013-03-29 11:45:00,
2013-03-29 13:47:00,71.2,46.3,29.80,SSW,202,5.4,5.4,41,0.00,CLR,,0.00,WeatherDisplay:10.37,2013-03-29 11:47:00,
2013-03-29 13:49:00,70.7,45.2,29.80,SSE,158,5.9,5.9,40,0.00,CLR,,0.00,WeatherDisplay:10.37,2013-03-29 11:49:00,
2013-03-29 13:50:00,70.7,45.2,29.80,SSE,158,5.9,5.9,40,0.00,CLR,,0.00,WeatherDisplay:10.37,2013-03-29 11:50:00,
2013-03-29 13:53:00,70.3,44.9,29.80,SSW,202,6.9,6.9,40,0.00,CLR,,0.00,WeatherDisplay:10.37,2013-03-29 11:53:00,
2013-03-29 13:54:00,70.3,46.2,29.80,West,270,6.9,6.9,42,0.00,CLR,,0.00,WeatherDisplay:10.37,2013-03-29 11:54:00,
2013-03-29 13:55:00,70.3,46.2,29.80,WSW,248,6.9,6.9,42,0.00,CLR,,0.00,WeatherDisplay:10.37,2013-03-29 11:55:00,
2013-03-29 13:58:00,70.9,47.3,29.80,WSW,248,3.6,3.6,43,0.00,CLR,,0.00,WeatherDisplay:10.37,2013-03-29 11:58:00,
2013-03-29 14:00:00,70.7,46.5,29.80,SW,225,5.8,5.8,42,0.00,CLR,,0.00,WeatherDisplay:10.37,2013-03-29 12:00:00,
2013-03-29 14:03:00,70.5,45.7,29.80,SE,135,5.4,5.4,41,0.00,CLR,,0.00,WeatherDisplay:10.37,2013-03-29 12:03:00,
2013-03-29 14:05:00,70.2,45.4,29.80,SSW,202,6.0,6.0,41,0.00,CLR,,0.00,WeatherDisplay:10.37,2013-03-29 12:05:00,
2013-03-29 14:07:00,70.5,46.3,29.80,SSE,158,4.6,4.6,42,0.00,CLR,,0.00,WeatherDisplay:10.37,2013-03-29 12:07:00,
2013-03-29 14:09:00,70.3,46.8,29.80,WSW,248,4.6,4.6,43,0.00,CLR,,0.00,WeatherDisplay:10.37,2013-03-29 12:09:00,
2013-03-29 14:10:00,70.3,46.8,29.80,SW,225,4.6,4.6,43,0.00,CLR,,0.00,WeatherDisplay:10.37,2013-03-29 12:10:00,
2013-03-29 14:12:00,70.9,47.3,29.80,South,180,4.6,4.6,43,0.00,CLR,,0.00,WeatherDisplay:10.37,2013-03-29 12:12:00,
2013-03-29 14:14:00,70.5,46.9,29.80,SSE,158,4.6,4.6,43,0.00,CLR,,0.00,WeatherDisplay:10.37,2013-03-29 12:14:00,
2013-03-29 14:15:00,70.7,47.1,29.80,SW,225,4.6,4.6,43,0.00,CLR,,0.00,WeatherDisplay:10.37,2013-03-29 12:15:00,
2013-03-29 14:17:00,70.9,47.3,29.80,WSW,248,4.6,4.6,43,0.00,CLR,,0.00,WeatherDisplay:10.37,2013-03-29 12:17:00,
2013-03-29 14:19:00,71.1,47.4,29.80,SSW,202,4.6,4.6,43,0.00,CLR,,0.00,WeatherDisplay:10.37,2013-03-29 12:19:00,
2013-03-29 14:20:00,71.1,47.4,29.80,SW,225,4.6,4.6,43,0.00,CLR,,0.00,WeatherDisplay:10.37,2013-03-29 12:20:00,
2013-03-29 14:23:00,70.9,47.3,29.80,SSW,202,4.6,4.6,43,0.00,CLR,,0.00,WeatherDisplay:10.37,2013-03-29 12:23:00,
2013-03-29 14:24:00,71.8,48.1,29.80,WSW,248,2.4,2.4,43,0.00,CLR,,0.00,WeatherDisplay:10.37,2013-03-29 12:24:00,
2013-03-29 14:25:00,71.6,47.3,29.80,SSE,158,5.4,5.4,42,0.00,CLR,,0.00,WeatherDisplay:10.37,2013-03-29 12:25:00,
2013-03-29 14:28:00,70.5,46.3,29.80,SSE,158,6.9,6.9,42,0.00,CLR,,0.00,WeatherDisplay:10.37,2013-03-29 12:28:00,
2013-03-29 14:29:00,70.2,46.0,29.80,South,180,4.6,4.6,42,0.00,CLR,,0.00,WeatherDisplay:10.37,2013-03-29 12:29:00,
2013-03-29 14:30:00,70.2,46.0,29.80,SE,135,6.9,6.9,42,0.00,CLR,,0.00,WeatherDisplay:10.37,2013-03-29 12:30:00,
2013-03-29 14:33:00,69.6,44.2,29.80,SE,135,3.5,3.5,40,0.00,CLR,,0.00,WeatherDisplay:10.37,2013-03-29 12:33:00,
2013-03-29 14:34:00,70.0,44.5,29.80,South,180,2.9,2.9,40,0.00,CLR,,0.00,WeatherDisplay:10.37,2013-03-29 12:34:00,
2013-03-29 14:35:00,69.8,45.7,29.80,SW,225,5.9,5.9,42,0.00,CLR,,0.00,WeatherDisplay:10.37,2013-03-29 12:35:00,
2013-03-29 14:38:00,69.1,46.2,29.80,South,180,3.5,3.5,44,0.00,CLR,,0.00,WeatherDisplay:10.37,2013-03-29 12:38:00,
2013-03-29 14:39:00,68.5,46.3,29.77,SSW,202,6.2,6.2,45,0.00,CLR,,0.00,WeatherDisplay:10.37,2013-03-29 12:39:00,
2013-03-29 14:40:00,68.2,46.0,29.77,South,180,5.8,5.8,45,0.00,CLR,,0.00,WeatherDisplay:10.37,2013-03-29 12:40:00,
2013-03-29 14:43:00,67.8,46.8,29.77,South,180,4.7,4.7,47,0.00,CLR,,0.00,WeatherDisplay:10.37,2013-03-29 12:43:00,
2013-03-29 14:44:00,67.6,46.7,29.77,WSW,248,4.6,4.6,47,0.00,CLR,,0.00,WeatherDisplay:10.37,2013-03-29 12:44:00,
2013-03-29 14:45:00,67.6,46.7,29.77,West,270,3.5,3.5,47,0.00,CLR,,0.00,WeatherDisplay:10.37,2013-03-29 12:45:00,
2013-03-29 14:46:00,67.6,46.7,29.77,WSW,248,3.5,3.5,47,0.00,CLR,,0.00,WeatherDisplay:10.37,2013-03-29 12:46:00,
2013-03-29 14:48:00,67.8,47.4,29.77,South,180,2.3,2.4,48,0.00,CLR,,0.00,WeatherDisplay:10.37,2013-03-29 12:48:00,
2013-03-29 14:49:00,67.6,47.2,29.77,SSW,202,4.6,4.6,48,0.00,CLR,,0.00,WeatherDisplay:10.37,2013-03-29 12:49:00,
2013-03-29 14:51:00,67.5,47.6,29.77,SW,225,5.8,5.8,49,0.00,CLR,,0.00,WeatherDisplay:10.37,2013-03-29 12:51:00,
2013-03-29 14:53:00,67.3,48.0,29.77,WSW,248,5.8,5.8,50,0.00,CLR,,0.00,WeatherDisplay:10.37,2013-03-29 12:53:00,
2013-03-29 14:54:00,66.9,47.7,29.77,West,270,4.6,4.6,50,0.00,CLR,,0.00,WeatherDisplay:10.37,2013-03-29 12:54:00,
2013-03-29 14:56:00,66.6,47.9,29.77,WSW,248,4.6,4.6,51,0.00,CLR,,0.00,WeatherDisplay:10.37,2013-03-29 12:56:00,
2013-03-29 14:58:00,66.4,48.2,29.77,SSW,202,3.5,3.5,52,0.00,CLR,,0.00,WeatherDisplay:10.37,2013-03-29 12:58:00,
2013-03-29 14:59:00,66.4,48.2,29.77,SSW,202,3.5,3.5,52,0.00,CLR,,0.00,WeatherDisplay:10.37,2013-03-29 12:59:00,
2013-03-29 15:01:00,66.6,49.4,29.77,WSW,248,3.5,3.5,54,0.00,CLR,,0.00,WeatherDisplay:10.37,2013-03-29 13:01:00,
2013-03-29 15:03:00,66.9,49.7,29.77,SSW,202,2.4,0.0,54,0.00,CLR,,0.00,WeatherDisplay:10.37,2013-03-29 13:03:00,
2013-03-29 15:04:00,66.9,49.7,29.77,SSW,202,3.5,3.5,54,0.00,CLR,,0.00,WeatherDisplay:10.37,2013-03-29 13:04:00,
2013-03-29 15:07:00,66.9,49.7,29.77,SSW,202,3.5,3.5,54,0.00,CLR,,0.00,WeatherDisplay:10.37,2013-03-29 13:07:00,
2013-03-29 15:09:00,66.2,49.1,29.77,SSW,202,4.6,4.6,54,0.00,CLR,,0.00,WeatherDisplay:10.37,2013-03-29 13:09:00,
2013-03-29 15:10:00,66.0,49.4,29.80,SSW,202,3.5,3.5,55,0.00,CLR,,0.00,WeatherDisplay:10.37,2013-03-29 13:10:00,
2013-03-29 15:12:00,65.8,49.2,29.80,SSW,202,2.3,2.9,55,0.00,CLR,,0.00,WeatherDisplay:10.37,2013-03-29 13:12:00,
2013-03-29 15:14:00,65.8,49.7,29.80,WSW,248,3.5,3.5,56,0.00,CLR,,0.00,WeatherDisplay:10.37,2013-03-29 13:14:00,
2013-03-29 15:15:00,66.0,49.9,29.80,WSW,248,3.5,3.5,56,0.00,CLR,,0.00,WeatherDisplay:10.37,2013-03-29 13:15:00,
2013-03-29 15:17:00,66.0,49.9,29.80,WSW,248,3.8,3.8,56,0.00,CLR,,0.00,WeatherDisplay:10.37,2013-03-29 13:17:00,
2013-03-29 15:18:00,66.0,49.9,29.80,WSW,248,3.5,3.5,56,0.00,CLR,,0.00,WeatherDisplay:10.37,2013-03-29 13:18:00,
2013-03-29 15:19:00,66.2,50.0,29.80,SSW,202,2.3,2.4,56,0.00,CLR,,0.00,WeatherDisplay:10.37,2013-03-29 13:19:00,
2013-03-29 15:20:00,66.4,50.2,29.80,South,180,3.3,3.3,56,0.00,CLR,,0.00,WeatherDisplay:10.37,2013-03-29 13:20:00,
2013-03-29 15:22:00,66.6,50.4,29.80,SW,225,2.3,0.0,56,0.00,CLR,,0.00,WeatherDisplay:10.37,2013-03-29 13:22:00,
2013-03-29 15:23:00,66.6,50.4,29.80,SW,225,2.3,0.0,56,0.00,CLR,,0.00,WeatherDisplay:10.37,2013-03-29 13:23:00,
2013-03-29 15:24:00,66.4,50.2,29.80,SSW,202,4.6,4.6,56,0.00,CLR,,0.00,WeatherDisplay:10.37,2013-03-29 13:24:00,
2013-03-29 15:26:00,66.4,49.7,29.80,SSW,202,3.5,3.5,55,0.00,CLR,,0.00,WeatherDisplay:10.37,2013-03-29 13:26:00,
2013-03-29 15:27:00,66.6,49.9,29.80,WSW,248,3.5,3.5,55,0.00,CLR,,0.00,WeatherDisplay:10.37,2013-03-29 13:27:00,
2013-03-29 15:28:00,66.6,49.9,29.80,WSW,248,3.5,3.5,55,0.00,CLR,,0.00,WeatherDisplay:10.37,2013-03-29 13:28:00,
2013-03-29 15:29:00,66.6,49.9,29.80,WNW,292,2.4,2.4,55,0.00,CLR,,0.00,WeatherDisplay:10.37,2013-03-29 13:29:00,
2013-03-29 15:31:00,66.6,49.9,29.80,WSW,248,3.6,3.6,55,0.00,CLR,,0.00,WeatherDisplay:10.37,2013-03-29 13:31:00,
2013-03-29 15:32:00,66.4,49.7,29.80,WSW,248,3.5,3.5,55,0.00,CLR,,0.00,WeatherDisplay:10.37,2013-03-29 13:32:00,
2013-03-29 15:33:00,66.4,49.2,29.80,WSW,248,3.8,3.8,54,0.00,CLR,,0.00,WeatherDisplay:10.37,2013-03-29 13:33:00,
2013-03-29 15:34:00,66.4,49.2,29.80,WSW,248,3.5,3.5,54,0.00,CLR,,0.00,WeatherDisplay:10.37,2013-03-29 13:34:00,
2013-03-29 15:36:00,66.4,49.2,29.80,SSW,202,2.6,2.6,54,0.00,CLR,,0.00,WeatherDisplay:10.37,2013-03-29 13:36:00,
2013-03-29 15:37:00,66.4,49.2,29.80,WSW,248,3.5,3.5,54,0.00,CLR,,0.00,WeatherDisplay:10.37,2013-03-29 13:37:00,
2013-03-29 15:38:00,66.4,49.2,29.80,WSW,248,3.5,3.5,54,0.00,CLR,,0.00,WeatherDisplay:10.37,2013-03-29 13:38:00,
2013-03-29 15:39:00,66.6,49.4,29.80,WSW,248,2.3,2.3,54,0.00,CLR,,0.00,WeatherDisplay:10.37,2013-03-29 13:39:00,
2013-03-29 15:42:00,66.6,49.9,29.80,West,270,4.7,4.7,55,0.00,CLR,,0.00,WeatherDisplay:10.37,2013-03-29 13:42:00,
2013-03-29 15:43:00,66.7,49.6,29.80,WNW,292,4.6,4.6,54,0.00,CLR,,0.00,WeatherDisplay:10.37,2013-03-29 13:43:00,
2013-03-29 15:44:00,66.7,50.1,29.80,West,270,3.8,3.8,55,0.00,CLR,,0.00,WeatherDisplay:10.37,2013-03-29 13:44:00,
2013-03-29 15:47:00,66.6,49.9,29.80,WSW,248,5.8,5.8,55,0.00,CLR,,0.00,WeatherDisplay:10.37,2013-03-29 13:47:00,
2013-03-29 15:48:00,66.7,50.1,29.80,SSW,202,4.6,4.6,55,0.00,CLR,,0.00,WeatherDisplay:10.37,2013-03-29 13:48:00,
2013-03-29 15:50:00,66.9,50.2,29.80,WSW,248,3.8,3.8,55,0.00,CLR,,0.00,WeatherDisplay:10.37,2013-03-29 13:50:00,
2013-03-29 15:52:00,67.1,50.4,29.80,WNW,292,4.6,4.6,55,0.00,CLR,,0.00,WeatherDisplay:10.37,2013-03-29 13:52:00,
2013-03-29 15:54:00,67.1,49.9,29.80,WNW,292,6.9,6.9,54,0.00,CLR,,0.00,WeatherDisplay:10.37,2013-03-29 13:54:00,
2013-03-29 15:55:00,67.5,50.2,29.80,WNW,292,5.8,5.8,54,0.00,CLR,,0.00,WeatherDisplay:10.37,2013-03-29 13:55:00,
2013-03-29 15:58:00,67.5,50.2,29.80,WNW,292,5.8,5.8,54,0.00,CLR,,0.00,WeatherDisplay:10.37,2013-03-29 13:58:00,
2013-03-29 15:59:00,67.5,49.7,29.80,WNW,292,4.6,4.6,53,0.00,CLR,,0.00,WeatherDisplay:10.37,2013-03-29 13:59:00,
2013-03-29 16:00:00,67.3,49.6,29.80,WSW,248,4.6,4.6,53,0.00,CLR,,0.00,WeatherDisplay:10.37,2013-03-29 14:00:00,
2013-03-29 16:03:00,67.8,50.6,29.80,WSW,248,3.1,3.1,54,0.00,CLR,,0.00,WeatherDisplay:10.37,2013-03-29 14:03:00,
2013-03-29 16:04:00,67.8,50.1,29.80,WSW,248,4.6,4.6,53,0.00,CLR,,0.00,WeatherDisplay:10.37,2013-03-29 14:04:00,
2013-03-29 16:05:00,68.0,50.2,29.80,WSW,248,4.6,4.6,53,0.00,CLR,,0.00,WeatherDisplay:10.37,2013-03-29 14:05:00,
2013-03-29 16:08:00,68.7,50.9,29.80,WNW,292,4.6,4.6,53,0.00,CLR,,0.00,WeatherDisplay:10.37,2013-03-29 14:08:00,
2013-03-29 16:09:00,68.9,50.5,29.80,West,270,5.8,5.8,52,0.00,CLR,,0.00,WeatherDisplay:10.37,2013-03-29 14:09:00,
2013-03-29 16:10:00,68.9,50.5,29.80,West,270,5.8,5.8,52,0.00,CLR,,0.00,WeatherDisplay:10.37,2013-03-29 14:10:00,
2013-03-29 16:13:00,68.5,48.6,29.80,WSW,248,6.9,6.9,49,0.00,CLR,,0.00,WeatherDisplay:10.37,2013-03-29 14:13:00,
2013-03-29 16:14:00,68.4,48.5,29.80,WNW,292,5.8,5.8,49,0.00,CLR,,0.00,WeatherDisplay:10.37,2013-03-29 14:14:00,
2013-03-29 16:15:00,68.5,48.6,29.80,WSW,248,4.6,4.6,49,0.00,CLR,,0.00,WeatherDisplay:10.37,2013-03-29 14:15:00,
2013-03-29 16:18:00,68.7,49.3,29.80,SSW,202,3.5,3.5,50,0.00,CLR,,0.00,WeatherDisplay:10.37,2013-03-29 14:18:00,
2013-03-29 16:19:00,68.7,49.3,29.80,WSW,248,2.3,2.3,50,0.00,CLR,,0.00,WeatherDisplay:10.37,2013-03-29 14:19:00,
2013-03-29 16:20:00,68.9,50.0,29.80,West,270,1.2,1.2,51,0.00,CLR,,0.00,WeatherDisplay:10.37,2013-03-29 14:20:00,
2013-03-29 16:23:00,69.1,49.7,29.80,SW,225,3.5,3.5,50,0.00,CLR,,0.00,WeatherDisplay:10.37,2013-03-29 14:23:00,
2013-03-29 16:25:00,69.1,49.1,29.77,West,270,3.5,3.5,49,0.00,CLR,,0.00,WeatherDisplay:10.37,2013-03-29 14:25:00,
2013-03-29 16:28:00,69.4,49.4,29.77,WSW,248,5.4,5.4,49,0.00,CLR,,0.00,WeatherDisplay:10.37,2013-03-29 14:28:00,
2013-03-29 16:30:00,68.9,47.3,29.77,West,270,5.8,5.8,46,0.00,CLR,,0.00,WeatherDisplay:10.37,2013-03-29 14:30:00,
2013-03-29 16:33:00,70.3,49.1,29.77,SSE,158,1.2,1.2,47,0.00,CLR,,0.00,WeatherDisplay:10.37,2013-03-29 14:33:00,
2013-03-29 16:35:00,70.3,48.0,29.77,SSW,202,3.5,3.5,45,0.00,CLR,,0.00,WeatherDisplay:10.37,2013-03-29 14:35:00,
2013-03-29 16:37:00,70.5,47.5,29.77,SSE,158,3.5,3.5,44,0.00,CLR,,0.00,WeatherDisplay:10.37,2013-03-29 14:37:00,
2013-03-29 16:39:00,70.7,47.7,29.77,SW,225,4.6,4.6,44,0.00,CLR,,0.00,WeatherDisplay:10.37,2013-03-29 14:39:00,
2013-03-29 16:40:00,70.2,46.6,29.77,SE,135,3.5,3.5,43,0.00,CLR,,0.00,WeatherDisplay:10.37,2013-03-29 14:40:00,
2013-03-29 16:41:00,70.2,46.6,29.77,SSE,158,3.5,3.5,43,0.00,CLR,,0.00,WeatherDisplay:10.37,2013-03-29 14:41:00,
2013-03-29 16:42:00,70.7,47.1,29.77,SSW,202,2.3,0.0,43,0.00,CLR,,0.00,WeatherDisplay:10.37,2013-03-29 14:42:00,
2013-03-29 16:44:00,71.1,48.0,29.77,West,270,3.5,3.5,44,0.00,CLR,,0.00,WeatherDisplay:10.37,2013-03-29 14:44:00,
2013-03-29 16:45:00,71.8,48.1,29.77,SSE,158,3.5,3.5,43,0.00,CLR,,0.00,WeatherDisplay:10.37,2013-03-29 14:45:00,
2013-03-29 16:46:00,71.8,48.1,29.77,SE,135,3.5,3.5,43,0.00,CLR,,0.00,WeatherDisplay:10.37,2013-03-29 14:46:00,
2013-03-29 16:47:00,72.0,47.6,29.77,ESE,112,3.5,3.5,42,0.00,CLR,,0.00,WeatherDisplay:10.37,2013-03-29 14:47:00,
2013-03-29 16:49:00,72.0,47.0,29.77,SSE,158,2.3,2.3,41,0.00,CLR,,0.00,WeatherDisplay:10.37,2013-03-29 14:49:00,
2013-03-29 16:50:00,71.6,45.3,29.77,SSW,202,4.6,4.6,39,0.00,CLR,,0.00,WeatherDisplay:10.37,2013-03-29 14:50:00,
2013-03-29 16:52:00,71.1,44.8,29.77,South,180,3.5,3.5,39,0.00,CLR,,0.00,WeatherDisplay:10.37,2013-03-29 14:52:00,
2013-03-29 16:54:00,70.5,45.0,29.77,SSW,202,2.3,2.3,40,0.00,CLR,,0.00,WeatherDisplay:10.37,2013-03-29 14:54:00,
2013-03-29 16:55:00,70.2,45.4,29.77,SSW,202,3.5,3.5,41,0.00,CLR,,0.00,WeatherDisplay:10.37,2013-03-29 14:55:00,
2013-03-29 16:57:00,70.0,45.8,29.77,SSW,202,3.5,3.5,42,0.00,CLR,,0.00,WeatherDisplay:10.37,2013-03-29 14:57:00,
2013-03-29 16:59:00,69.8,46.3,29.77,SSW,202,3.6,3.6,43,0.00,CLR,,0.00,WeatherDisplay:10.37,2013-03-29 14:59:00,
2013-03-29 17:01:00,69.4,46.6,29.77,SW,225,3.5,3.5,44,0.00,CLR,,0.00,WeatherDisplay:10.37,2013-03-29 15:01:00,
2013-03-29 17:02:00,69.3,46.4,29.77,WSW,248,2.3,2.3,44,0.00,CLR,,0.00,WeatherDisplay:10.37,2013-03-29 15:02:00,
2013-03-29 17:03:00,69.3,46.4,29.77,West,270,2.9,2.9,44,0.00,CLR,,0.00,WeatherDisplay:10.37,2013-03-29 15:03:00,
2013-03-29 17:04:00,69.1,46.2,29.77,WSW,248,3.5,3.5,44,0.00,CLR,,0.00,WeatherDisplay:10.37,2013-03-29 15:04:00,
2013-03-29 17:06:00,69.3,46.4,29.77,South,180,3.5,3.5,44,0.00,CLR,,0.00,WeatherDisplay:10.37,2013-03-29 15:06:00,
2013-03-29 17:08:00,69.3,47.0,29.77,WSW,248,2.4,2.4,45,0.00,CLR,,0.00,WeatherDisplay:10.37,2013-03-29 15:08:00,
2013-03-29 17:09:00,69.3,47.0,29.77,SW,225,2.3,2.3,45,0.00,CLR,,0.00,WeatherDisplay:10.37,2013-03-29 15:09:00,
2013-03-29 17:12:00,68.9,46.1,29.77,SSW,202,3.5,3.5,44,0.00,CLR,,0.00,WeatherDisplay:10.37,2013-03-29 15:12:00,
2013-03-29 17:13:00,68.7,45.9,29.77,SSW,202,3.5,3.5,44,0.00,CLR,,0.00,WeatherDisplay:10.37,2013-03-29 15:13:00,
2013-03-29 17:14:00,68.7,45.9,29.77,SSW,202,2.3,0.0,44,0.00,CLR,,0.00,WeatherDisplay:10.37,2013-03-29 15:14:00,
2013-03-29 17:17:00,69.1,46.8,29.77,WSW,248,3.6,3.6,45,0.00,CLR,,0.00,WeatherDisplay:10.37,2013-03-29 15:17:00,
2013-03-29 17:18:00,68.5,45.8,29.77,West,270,4.6,4.6,44,0.00,CLR,,0.00,WeatherDisplay:10.37,2013-03-29 15:18:00,
2013-03-29 17:19:00,68.4,45.6,29.77,West,270,3.5,3.5,44,0.00,CLR,,0.00,WeatherDisplay:10.37,2013-03-29 15:19:00,
2013-03-29 17:22:00,67.8,45.7,29.77,West,270,5.8,5.8,45,0.00,CLR,,0.00,WeatherDisplay:10.37,2013-03-29 15:22:00,
2013-03-29 17:23:00,67.3,45.2,29.77,SW,225,4.6,4.6,45,0.00,CLR,,0.00,WeatherDisplay:10.37,2013-03-29 15:23:00,
2013-03-29 17:24:00,66.9,44.9,29.74,SW,225,2.3,2.3,45,0.00,CLR,,0.00,WeatherDisplay:10.37,2013-03-29 15:24:00,
2013-03-29 17:28:00,66.6,45.1,29.74,SW,225,3.5,3.5,46,0.00,CLR,,0.00,WeatherDisplay:10.37,2013-03-29 15:28:00,
2013-03-29 17:30:00,66.2,44.8,29.74,SSW,202,2.3,2.3,46,0.00,CLR,,0.00,WeatherDisplay:10.37,2013-03-29 15:30:00,
2013-03-29 17:33:00,65.8,45.6,29.74,SSW,202,2.3,2.4,48,0.00,CLR,,0.00,WeatherDisplay:10.37,2013-03-29 15:33:00,
2013-03-29 17:35:00,65.7,45.4,29.74,WSW,248,3.5,3.5,48,0.00,CLR,,0.00,WeatherDisplay:10.37,2013-03-29 15:35:00,
2013-03-29 17:38:00,65.7,45.4,29.74,West,270,2.3,2.3,48,0.00,CLR,,0.00,WeatherDisplay:10.37,2013-03-29 15:38:00,
2013-03-29 17:39:00,65.7,45.4,29.74,West,270,2.3,2.3,48,0.00,CLR,,0.00,WeatherDisplay:10.37,2013-03-29 15:39:00,
2013-03-29 17:40:00,65.5,45.8,29.74,WSW,248,2.3,2.3,49,0.00,CLR,,0.00,WeatherDisplay:10.37,2013-03-29 15:40:00,
2013-03-29 17:43:00,65.5,45.8,29.74,SSE,158,2.2,2.2,49,0.00,CLR,,0.00,WeatherDisplay:10.37,2013-03-29 15:43:00,
2013-03-29 17:44:00,65.5,45.8,29.74,SSE,158,2.3,2.3,49,0.00,CLR,,0.00,WeatherDisplay:10.37,2013-03-29 15:44:00,
2013-03-29 17:45:00,65.5,45.8,29.74,SW,225,2.3,2.3,49,0.00,CLR,,0.00,WeatherDisplay:10.37,2013-03-29 15:45:00,
2013-03-29 17:48:00,65.3,46.2,29.74,SSE,158,2.3,0.0,50,0.00,CLR,,0.00,WeatherDisplay:10.37,2013-03-29 15:48:00,
2013-03-29 17:49:00,65.5,46.3,29.74,South,180,2.0,0.0,50,0.00,CLR,,0.00,WeatherDisplay:10.37,2013-03-29 15:49:00,
2013-03-29 17:50:00,65.1,46.5,29.74,SSW,202,3.5,3.5,51,0.00,CLR,,0.00,WeatherDisplay:10.37,2013-03-29 15:50:00,
2013-03-29 17:53:00,65.1,46.5,29.74,WSW,248,2.4,2.4,51,0.00,CLR,,0.00,WeatherDisplay:10.37,2013-03-29 15:53:00,
2013-03-29 17:54:00,65.1,46.5,29.74,WSW,248,2.3,2.6,51,0.00,CLR,,0.00,WeatherDisplay:10.37,2013-03-29 15:54:00,
2013-03-29 17:55:00,65.1,46.5,29.74,West,270,3.5,3.5,51,0.00,CLR,,0.00,WeatherDisplay:10.37,2013-03-29 15:55:00,
2013-03-29 17:58:00,65.1,46.5,29.74,WNW,292,1.2,1.2,51,0.00,CLR,,0.00,WeatherDisplay:10.37,2013-03-29 15:58:00,
2013-03-29 17:59:00,65.1,46.5,29.74,WNW,292,1.2,0.0,51,0.00,CLR,,0.00,WeatherDisplay:10.37,2013-03-29 15:59:00,
2013-03-29 18:00:00,65.1,46.5,29.74,SSE,158,3.5,3.5,51,0.00,CLR,,0.00,WeatherDisplay:10.37,2013-03-29 16:00:00,
2013-03-29 18:03:00,64.8,46.2,29.74,SSW,202,1.4,0.0,51,0.00,CLR,,0.00,WeatherDisplay:10.37,2013-03-29 16:03:00,
2013-03-29 18:04:00,64.8,46.2,29.74,SSW,202,1.6,0.0,51,0.00,CLR,,0.00,WeatherDisplay:10.37,2013-03-29 16:04:00,
2013-03-29 18:05:00,64.8,46.7,29.74,SSW,202,5.8,5.8,52,0.00,CLR,,0.00,WeatherDisplay:10.37,2013-03-29 16:05:00,
2013-03-29 18:08:00,64.8,46.7,29.74,SSE,158,3.5,3.5,52,0.00,CLR,,0.00,WeatherDisplay:10.37,2013-03-29 16:08:00,
2013-03-29 18:09:00,64.8,46.7,29.74,SSW,202,2.3,0.0,52,0.00,CLR,,0.00,WeatherDisplay:10.37,2013-03-29 16:09:00,
2013-03-29 18:10:00,64.8,46.7,29.74,SSE,158,4.6,4.6,52,0.00,CLR,,0.00,WeatherDisplay:10.37,2013-03-29 16:10:00,
2013-03-29 18:14:00,64.9,47.4,29.74,South,180,0.0,0.0,53,0.00,CLR,,0.00,WeatherDisplay:10.37,2013-03-29 16:14:00,
2013-03-29 18:16:00,65.1,47.1,29.74,SSW,202,1.2,0.0,52,0.00,CLR,,0.00,WeatherDisplay:10.37,2013-03-29 16:16:00,
2013-03-29 18:19:00,64.6,47.1,29.74,SSW,202,4.6,4.6,53,0.00,CLR,,0.00,WeatherDisplay:10.37,2013-03-29 16:19:00,
2013-03-29 18:21:00,64.4,46.4,29.74,SSW,202,3.5,3.5,52,0.00,CLR,,0.00,WeatherDisplay:10.37,2013-03-29 16:21:00,
2013-03-29 18:24:00,64.0,46.6,29.77,SW,225,2.3,0.0,53,0.00,CLR,,0.00,WeatherDisplay:10.37,2013-03-29 16:24:00,
2013-03-29 18:26:00,64.0,46.6,29.77,SW,225,0.0,0.0,53,0.00,CLR,,0.00,WeatherDisplay:10.37,2013-03-29 16:26:00,
2013-03-29 18:29:00,63.7,46.2,29.77,WSW,248,2.3,2.3,53,0.00,CLR,,0.00,WeatherDisplay:10.37,2013-03-29 16:29:00,
2013-03-29 18:31:00,63.5,46.1,29.77,West,270,2.4,2.4,53,0.00,CLR,,0.00,WeatherDisplay:10.37,2013-03-29 16:31:00,
2013-03-29 18:34:00,63.1,46.2,29.77,West,270,2.6,2.6,54,0.00,CLR,,0.00,WeatherDisplay:10.37,2013-03-29 16:34:00,
2013-03-29 18:36:00,63.1,46.7,29.77,WNW,292,2.3,2.3,55,0.00,CLR,,0.00,WeatherDisplay:10.37,2013-03-29 16:36:00,
2013-03-29 18:39:00,63.0,46.5,29.77,WNW,292,2.9,2.9,55,0.00,CLR,,0.00,WeatherDisplay:10.37,2013-03-29 16:39:00,
2013-03-29 18:40:00,62.8,47.3,29.77,WNW,292,4.6,4.6,57,0.00,CLR,,0.00,WeatherDisplay:10.37,2013-03-29 16:40:00,
2013-03-29 18:41:00,62.8,47.3,29.77,WNW,292,4.6,4.6,57,0.00,CLR,,0.00,WeatherDisplay:10.37,2013-03-29 16:41:00,
2013-03-29 18:44:00,62.8,47.3,29.77,WSW,248,3.3,3.3,57,0.00,CLR,,0.00,WeatherDisplay:10.37,2013-03-29 16:44:00,
2013-03-29 18:45:00,62.4,47.4,29.77,WNW,292,3.8,3.8,58,0.00,CLR,,0.00,WeatherDisplay:10.37,2013-03-29 16:45:00,
2013-03-29 18:46:00,62.4,47.9,29.77,NNW,338,3.5,3.5,59,0.00,CLR,,0.00,WeatherDisplay:10.37,2013-03-29 16:46:00,
2013-03-29 18:50:00,62.1,48.0,29.77,WSW,248,2.3,2.3,60,0.00,CLR,,0.00,WeatherDisplay:10.37,2013-03-29 16:50:00,
2013-03-29 18:51:00,62.1,48.0,29.77,WSW,248,2.3,2.3,60,0.00,CLR,,0.00,WeatherDisplay:10.37,2013-03-29 16:51:00,
2013-03-29 18:55:00,61.9,49.6,29.77,WNW,292,3.8,3.8,64,0.00,CLR,,0.00,WeatherDisplay:10.37,2013-03-29 16:55:00,
2013-03-29 18:56:00,61.7,50.2,29.77,West,270,4.6,4.6,66,0.00,CLR,,0.00,WeatherDisplay:10.37,2013-03-29 16:56:00,
2013-03-29 18:57:00,61.7,50.2,29.77,West,270,4.6,4.6,66,0.00,CLR,,0.00,WeatherDisplay:10.37,2013-03-29 16:57:00,
2013-03-29 19:00:00,61.5,49.6,29.77,WNW,292,2.4,2.4,65,0.00,CLR,,0.00,WeatherDisplay:10.37,2013-03-29 17:00:00,
2013-03-29 19:02:00,61.5,50.5,29.77,WNW,292,3.5,3.5,67,0.00,CLR,,0.00,WeatherDisplay:10.37,2013-03-29 17:02:00,
2013-03-29 19:05:00,61.3,50.7,29.77,WSW,248,3.5,3.5,68,0.00,CLR,,0.00,WeatherDisplay:10.37,2013-03-29 17:05:00,
2013-03-29 19:07:00,61.2,50.5,29.77,WNW,292,2.3,2.3,68,0.00,CLR,,0.00,WeatherDisplay:10.37,2013-03-29 17:07:00,
2013-03-29 19:08:00,61.2,50.9,29.77,WNW,292,2.3,2.4,69,0.00,CLR,,0.00,WeatherDisplay:10.37,2013-03-29 17:08:00,
2013-03-29 19:10:00,61.2,50.9,29.77,WNW,292,2.3,2.3,69,0.00,CLR,,0.00,WeatherDisplay:10.37,2013-03-29 17:10:00,
2013-03-29 19:11:00,61.2,50.9,29.77,WNW,292,2.3,2.3,69,0.00,CLR,,0.00,WeatherDisplay:10.37,2013-03-29 17:11:00,
2013-03-29 19:12:00,61.0,51.9,29.77,West,270,4.6,4.6,72,0.00,CLR,,0.00,WeatherDisplay:10.37,2013-03-29 17:12:00,
2013-03-29 19:13:00,61.0,51.9,29.77,WNW,292,2.9,2.9,72,0.00,CLR,,0.00,WeatherDisplay:10.37,2013-03-29 17:13:00,
2013-03-29 19:15:00,61.0,51.9,29.77,WSW,248,2.0,2.0,72,0.00,CLR,,0.00,WeatherDisplay:10.37,2013-03-29 17:15:00,
2013-03-29 19:16:00,61.0,51.9,29.77,WSW,248,1.2,1.4,72,0.00,CLR,,0.00,WeatherDisplay:10.37,2013-03-29 17:16:00,
2013-03-29 19:17:00,60.8,51.7,29.77,West,270,2.3,2.3,72,0.00,CLR,,0.00,WeatherDisplay:10.37,2013-03-29 17:17:00,
2013-03-29 19:19:00,60.8,51.7,29.77,WNW,292,3.3,3.3,72,0.00,CLR,,0.00,WeatherDisplay:10.37,2013-03-29 17:19:00,
2013-03-29 19:20:00,60.8,52.5,29.77,West,270,3.5,3.5,74,0.00,CLR,,0.00,WeatherDisplay:10.37,2013-03-29 17:20:00,
2013-03-29 19:22:00,60.8,52.8,29.77,WNW,292,4.6,4.6,75,0.00,CLR,,0.00,WeatherDisplay:10.37,2013-03-29 17:22:00,
2013-03-29 19:24:00,60.6,52.6,29.77,WNW,292,2.3,2.3,75,0.00,CLR,,0.00,WeatherDisplay:10.37,2013-03-29 17:24:00,
2013-03-29 19:25:00,60.6,53.0,29.77,WNW,292,4.6,4.6,76,0.00,CLR,,0.00,WeatherDisplay:10.37,2013-03-29 17:25:00,
2013-03-29 19:28:00,60.4,54.2,29.77,WNW,292,5.8,5.8,80,0.00,CLR,,0.00,WeatherDisplay:10.37,2013-03-29 17:28:00,
2013-03-29 19:29:00,60.4,54.2,29.77,WNW,292,5.8,5.8,80,0.00,CLR,,0.00,WeatherDisplay:10.37,2013-03-29 17:29:00,
2013-03-29 19:30:00,60.4,54.2,29.77,WNW,292,4.0,4.0,80,0.00,CLR,,0.00,WeatherDisplay:10.37,2013-03-29 17:30:00,
2013-03-29 19:33:00,60.3,54.1,29.77,WNW,292,2.3,2.3,80,0.00,CLR,,0.00,WeatherDisplay:10.37,2013-03-29 17:33:00,
2013-03-29 19:34:00,60.3,54.1,29.77,WNW,292,2.3,2.3,80,0.00,CLR,,0.00,WeatherDisplay:10.37,2013-03-29 17:34:00,
2013-03-29 19:36:00,60.3,53.7,29.77,West,270,4.0,4.0,79,0.00,CLR,,0.00,WeatherDisplay:10.37,2013-03-29 17:36:00,
2013-03-29 19:38:00,60.1,53.9,29.77,WNW,292,2.3,2.3,80,0.00,CLR,,0.00,WeatherDisplay:10.37,2013-03-29 17:38:00,
2013-03-29 19:39:00,60.1,53.9,29.77,WNW,292,2.3,2.3,80,0.00,CLR,,0.00,WeatherDisplay:10.37,2013-03-29 17:39:00,
2013-03-29 19:41:00,60.1,53.9,29.77,WNW,292,2.6,2.6,80,0.00,CLR,,0.00,WeatherDisplay:10.37,2013-03-29 17:41:00,
2013-03-29 19:44:00,60.1,53.9,29.77,WNW,292,3.5,3.5,80,0.00,CLR,,0.00,WeatherDisplay:10.37,2013-03-29 17:44:00,
2013-03-29 19:46:00,59.9,53.7,29.77,West,270,2.4,2.4,80,0.00,CLR,,0.00,WeatherDisplay:10.37,2013-03-29 17:46:00,
2013-03-29 19:49:00,59.9,53.7,29.77,WNW,292,4.7,4.7,80,0.00,CLR,,0.00,WeatherDisplay:10.37,2013-03-29 17:49:00,
2013-03-29 19:51:00,59.7,54.5,29.77,WNW,292,4.6,4.6,83,0.00,CLR,,0.00,WeatherDisplay:10.37,2013-03-29 17:51:00,
2013-03-29 19:54:00,59.7,54.5,29.77,WNW,292,3.5,3.5,83,0.00,CLR,,0.00,WeatherDisplay:10.37,2013-03-29 17:54:00,
2013-03-29 19:56:00,59.5,54.4,29.77,WNW,292,2.3,2.3,83,0.00,CLR,,0.00,WeatherDisplay:10.37,2013-03-29 17:56:00,
2013-03-29 19:59:00,59.7,54.9,29.77,WNW,292,3.6,3.6,84,0.00,CLR,,0.00,WeatherDisplay:10.37,2013-03-29 17:59:00,
2013-03-29 20:02:00,59.5,54.7,29.77,WSW,248,3.5,3.5,84,0.00,CLR,,0.00,WeatherDisplay:10.37,2013-03-29 18:02:00,
2013-03-29 20:04:00,59.5,54.7,29.77,WSW,248,2.3,2.3,84,0.00,CLR,,0.00,WeatherDisplay:10.37,2013-03-29 18:04:00,
2013-03-29 20:05:00,59.5,54.7,29.77,WSW,248,2.3,2.3,84,0.00,CLR,,0.00,WeatherDisplay:10.37,2013-03-29 18:05:00,
2013-03-29 20:07:00,59.5,55.0,29.77,West,270,3.6,3.6,85,0.00,CLR,,0.00,WeatherDisplay:10.37,2013-03-29 18:07:00,
2013-03-29 20:09:00,59.5,55.0,29.77,West,270,3.5,3.5,85,0.00,CLR,,0.00,WeatherDisplay:10.37,2013-03-29 18:09:00,
2013-03-29 20:10:00,59.5,55.0,29.77,West,270,2.3,2.3,85,0.00,CLR,,0.00,WeatherDisplay:10.37,2013-03-29 18:10:00,
2013-03-29 20:12:00,59.4,54.8,29.77,West,270,2.6,2.6,85,0.00,CLR,,0.00,WeatherDisplay:10.37,2013-03-29 18:12:00,
2013-03-29 20:14:00,59.5,55.0,29.77,WNW,292,0.0,0.0,85,0.00,CLR,,0.00,WeatherDisplay:10.37,2013-03-29 18:14:00,
2013-03-29 20:15:00,59.4,55.2,29.77,WNW,292,2.3,2.3,86,0.00,CLR,,0.00,WeatherDisplay:10.37,2013-03-29 18:15:00,
2013-03-29 20:19:00,59.4,55.2,29.77,WNW,292,3.5,3.5,86,0.00,CLR,,0.00,WeatherDisplay:10.37,2013-03-29 18:19:00,
2013-03-29 20:20:00,59.4,55.5,29.77,West,270,3.5,3.5,87,0.00,CLR,,0.00,WeatherDisplay:10.37,2013-03-29 18:20:00,
2013-03-29 20:24:00,59.4,55.5,29.77,West,270,2.3,2.3,87,0.00,CLR,,0.00,WeatherDisplay:10.37,2013-03-29 18:24:00,
2013-03-29 20:25:00,59.4,55.5,29.77,West,270,2.3,2.3,87,0.00,CLR,,0.00,WeatherDisplay:10.37,2013-03-29 18:25:00,
2013-03-29 20:29:00,59.4,55.5,29.77,WSW,248,1.6,1.6,87,0.00,CLR,,0.00,WeatherDisplay:10.37,2013-03-29 18:29:00,
2013-03-29 20:30:00,59.4,55.5,29.77,WSW,248,1.2,1.2,87,0.00,CLR,,0.00,WeatherDisplay:10.37,2013-03-29 18:30:00,
2013-03-29 20:34:00,59.2,55.3,29.77,WSW,248,1.6,1.6,87,0.00,CLR,,0.00,WeatherDisplay:10.37,2013-03-29 18:34:00,
2013-03-29 20:35:00,59.2,55.3,29.77,WSW,248,1.2,1.2,87,0.00,CLR,,0.00,WeatherDisplay:10.37,2013-03-29 18:35:00,
2013-03-29 20:36:00,59.2,55.3,29.77,WSW,248,2.2,2.2,87,0.00,CLR,,0.00,WeatherDisplay:10.37,2013-03-29 18:36:00,
2013-03-29 20:38:00,59.4,55.8,29.77,WSW,248,2.4,2.4,88,0.00,CLR,,0.00,WeatherDisplay:10.37,2013-03-29 18:38:00,
2013-03-29 20:39:00,59.2,56.2,29.77,WSW,248,4.6,4.6,90,0.00,CLR,,0.00,WeatherDisplay:10.37,2013-03-29 18:39:00,
2013-03-29 20:40:00,59.2,56.2,29.77,WSW,248,3.5,3.5,90,0.00,CLR,,0.00,WeatherDisplay:10.37,2013-03-29 18:40:00,
2013-03-29 20:41:00,59.2,56.2,29.77,WSW,248,3.5,3.5,90,0.00,CLR,,0.00,WeatherDisplay:10.37,2013-03-29 18:41:00,
2013-03-29 20:43:00,59.2,56.2,29.77,WSW,248,3.5,3.5,90,0.00,CLR,,0.00,WeatherDisplay:10.37,2013-03-29 18:43:00,
2013-03-29 20:44:00,59.2,56.2,29.77,WSW,248,1.6,1.6,90,0.00,CLR,,0.00,WeatherDisplay:10.37,2013-03-29 18:44:00,
2013-03-29 20:45:00,59.0,56.1,29.77,WSW,248,1.2,1.2,90,0.00,CLR,,0.00,WeatherDisplay:10.37,2013-03-29 18:45:00,
2013-03-29 20:46:00,59.0,56.1,29.77,West,270,2.6,2.6,90,0.00,CLR,,0.00,WeatherDisplay:10.37,2013-03-29 18:46:00,
2013-03-29 20:48:00,59.0,56.1,29.77,WNW,292,2.3,2.6,90,0.00,CLR,,0.00,WeatherDisplay:10.37,2013-03-29 18:48:00,
2013-03-29 20:49:00,59.0,56.4,29.77,West,270,2.3,2.3,91,0.00,CLR,,0.00,WeatherDisplay:10.37,2013-03-29 18:49:00,
2013-03-29 20:50:00,59.0,56.4,29.77,West,270,2.3,2.3,91,0.00,CLR,,0.00,WeatherDisplay:10.37,2013-03-29 18:50:00,
2013-03-29 20:51:00,59.0,56.4,29.77,West,270,2.9,2.9,91,0.00,CLR,,0.00,WeatherDisplay:10.37,2013-03-29 18:51:00,
2013-03-29 20:53:00,59.0,56.4,29.77,WNW,292,3.5,3.5,91,0.00,CLR,,0.00,WeatherDisplay:10.37,2013-03-29 18:53:00,
2013-03-29 20:54:00,58.8,56.5,29.80,WNW,292,2.9,2.9,92,0.00,CLR,,0.00,WeatherDisplay:10.37,2013-03-29 18:54:00,
2013-03-29 20:56:00,59.0,56.7,29.80,West,270,2.6,2.6,92,0.00,CLR,,0.00,WeatherDisplay:10.37,2013-03-29 18:56:00,
2013-03-29 20:59:00,58.8,56.8,29.80,West,270,2.4,2.4,93,0.00,CLR,,0.00,WeatherDisplay:10.37,2013-03-29 18:59:00,
2013-03-29 21:02:00,58.8,56.8,29.80,WNW,292,2.6,2.6,93,0.00,CLR,,0.00,WeatherDisplay:10.37,2013-03-29 19:02:00,
2013-03-29 21:04:00,58.8,56.8,29.80,NW,315,2.4,2.4,93,0.00,CLR,,0.00,WeatherDisplay:10.37,2013-03-29 19:04:00,
2013-03-29 21:07:00,58.8,57.1,29.80,West,270,2.4,2.4,94,0.00,CLR,,0.00,WeatherDisplay:10.37,2013-03-29 19:07:00,
2013-03-29 21:09:00,58.8,57.1,29.80,WNW,292,2.9,2.9,94,0.00,CLR,,0.00,WeatherDisplay:10.37,2013-03-29 19:09:00,
2013-03-29 21:12:00,58.8,57.4,29.80,WNW,292,2.3,2.4,95,0.00,CLR,,0.00,WeatherDisplay:10.37,2013-03-29 19:12:00,
2013-03-29 21:13:00,58.8,57.4,29.80,WNW,292,2.3,2.3,95,0.00,CLR,,0.00,WeatherDisplay:10.37,2013-03-29 19:13:00,
2013-03-29 21:14:00,58.8,57.4,29.80,WNW,292,2.3,2.3,95,0.00,CLR,,0.00,WeatherDisplay:10.37,2013-03-29 19:14:00,
2013-03-29 21:15:00,58.8,57.4,29.80,WNW,292,2.3,2.3,95,0.00,CLR,,0.00,WeatherDisplay:10.37,2013-03-29 19:15:00,
2013-03-29 21:17:00,58.8,57.4,29.80,WNW,292,3.5,3.5,95,0.00,CLR,,0.00,WeatherDisplay:10.37,2013-03-29 19:17:00,
2013-03-29 21:18:00,58.8,57.7,29.80,WNW,292,3.5,3.5,96,0.00,CLR,,0.00,WeatherDisplay:10.37,2013-03-29 19:18:00,
2013-03-29 21:19:00,58.8,57.7,29.80,WNW,292,3.5,3.5,96,0.00,CLR,,0.00,WeatherDisplay:10.37,2013-03-29 19:19:00,
2013-03-29 21:20:00,58.8,57.7,29.80,WNW,289,2.0,4.0,96,0.00,CLR,,0.00,WeatherDisplay:10.37,2013-03-29 19:20:00,
2013-03-29 21:22:00,58.6,57.5,29.80,NW,315,1.2,1.4,96,0.00,CLR,,0.00,WeatherDisplay:10.37,2013-03-29 19:22:00,
2013-03-29 21:24:00,58.6,57.5,29.80,NW,315,2.4,2.4,96,0.00,CLR,,0.00,WeatherDisplay:10.37,2013-03-29 19:24:00,
2013-03-29 21:25:00,58.6,57.5,29.80,NNE,22,2.3,2.3,96,0.00,CLR,,0.00,WeatherDisplay:10.37,2013-03-29 19:25:00,
2013-03-29 21:28:00,58.6,57.8,29.80,NNW,338,3.8,3.8,97,0.00,CLR,,0.00,WeatherDisplay:10.37,2013-03-29 19:28:00,
2013-03-29 21:29:00,58.6,57.8,29.80,NW,315,3.5,3.5,97,0.00,CLR,,0.00,WeatherDisplay:10.37,2013-03-29 19:29:00,
2013-03-29 21:31:00,58.6,57.8,29.80,NW,315,2.3,0.0,97,0.00,CLR,,0.00,WeatherDisplay:10.37,2013-03-29 19:31:00,
2013-03-29 21:33:00,58.6,57.8,29.80,NNW,338,2.4,2.4,97,0.00,CLR,,0.00,WeatherDisplay:10.37,2013-03-29 19:33:00,
2013-03-29 21:34:00,58.6,58.1,29.80,WNW,292,2.9,2.9,98,0.00,CLR,,0.00,WeatherDisplay:10.37,2013-03-29 19:34:00,
2013-03-29 21:37:00,58.5,57.6,29.80,NW,315,1.2,1.2,97,0.00,CLR,,0.00,WeatherDisplay:10.37,2013-03-29 19:37:00,
2013-03-29 21:38:00,58.5,57.6,29.80,NW,315,2.9,2.9,97,0.00,CLR,,0.00,WeatherDisplay:10.37,2013-03-29 19:38:00,
2013-03-29 21:39:00,58.5,57.6,29.80,NNW,338,2.3,2.3,97,0.00,CLR,,0.00,WeatherDisplay:10.37,2013-03-29 19:39:00,
2013-03-29 21:42:00,58.5,57.9,29.80,NNE,22,3.5,3.5,98,0.00,CLR,,0.00,WeatherDisplay:10.37,2013-03-29 19:42:00,
2013-03-29 21:43:00,58.5,57.9,29.80,North,0,2.3,2.3,98,0.00,CLR,,0.00,WeatherDisplay:10.37,2013-03-29 19:43:00,
2013-03-29 21:44:00,58.3,57.4,29.80,NNW,338,2.3,2.3,97,0.00,CLR,,0.00,WeatherDisplay:10.37,2013-03-29 19:44:00,
2013-03-29 21:45:00,58.3,57.4,29.80,North,0,2.3,2.3,97,0.00,CLR,,0.00,WeatherDisplay:10.37,2013-03-29 19:45:00,
2013-03-29 21:47:00,58.3,57.7,29.80,NNW,338,2.3,2.4,98,0.00,CLR,,0.00,WeatherDisplay:10.37,2013-03-29 19:47:00,
2013-03-29 21:48:00,58.3,57.7,29.80,NNW,338,3.1,3.1,98,0.00,CLR,,0.00,WeatherDisplay:10.37,2013-03-29 19:48:00,
2013-03-29 21:49:00,58.3,57.7,29.80,NNW,338,3.5,3.5,98,0.00,CLR,,0.00,WeatherDisplay:10.37,2013-03-29 19:49:00,
2013-03-29 21:50:00,58.3,57.7,29.80,NNW,338,2.3,2.6,98,0.00,CLR,,0.00,WeatherDisplay:10.37,2013-03-29 19:50:00,
2013-03-29 21:52:00,58.3,57.7,29.80,NNW,338,2.3,2.3,98,0.00,CLR,,0.00,WeatherDisplay:10.37,2013-03-29 19:52:00,
2013-03-29 21:53:00,58.3,57.7,29.80,NNW,338,2.3,2.3,98,0.00,CLR,,0.00,WeatherDisplay:10.37,2013-03-29 19:53:00,
2013-03-29 21:54:00,58.3,57.7,29.80,NNW,338,2.9,2.9,98,0.00,CLR,,0.00,WeatherDisplay:10.37,2013-03-29 19:54:00,
2013-03-29 21:55:00,58.3,57.7,29.80,NNW,338,2.4,2.4,98,0.00,CLR,,0.00,WeatherDisplay:10.37,2013-03-29 19:55:00,
2013-03-29 21:58:00,58.3,57.7,29.80,NNW,338,2.3,2.3,98,0.00,CLR,,0.00,WeatherDisplay:10.37,2013-03-29 19:58:00,
2013-03-29 21:59:00,58.3,57.7,29.80,NNW,338,1.6,1.6,98,0.00,CLR,,0.00,WeatherDisplay:10.37,2013-03-29 19:59:00,
2013-03-29 22:01:00,58.3,57.7,29.80,NNW,338,1.6,0.0,98,0.00,CLR,,0.00,WeatherDisplay:10.37,2013-03-29 20:01:00,
2013-03-29 22:03:00,58.3,57.7,29.80,NNW,338,2.3,2.3,98,0.00,CLR,,0.00,WeatherDisplay:10.37,2013-03-29 20:03:00,
2013-03-29 22:04:00,58.3,57.7,29.80,NNW,338,2.0,2.0,98,0.00,CLR,,0.00,WeatherDisplay:10.37,2013-03-29 20:04:00,
2013-03-29 22:07:00,58.3,57.7,29.80,NNW,338,2.3,2.3,98,0.00,CLR,,0.00,WeatherDisplay:10.37,2013-03-29 20:07:00,
2013-03-29 22:08:00,58.3,57.7,29.80,NNW,338,2.3,2.3,98,0.00,CLR,,0.00,WeatherDisplay:10.37,2013-03-29 20:08:00,
2013-03-29 22:09:00,58.3,57.7,29.80,NNW,338,2.3,2.3,98,0.00,CLR,,0.00,WeatherDisplay:10.37,2013-03-29 20:09:00,
2013-03-29 22:12:00,58.3,57.7,29.80,NNW,338,2.3,2.3,98,0.00,CLR,,0.00,WeatherDisplay:10.37,2013-03-29 20:12:00,
2013-03-29 22:13:00,58.3,57.7,29.80,NNW,338,2.3,2.3,98,0.00,CLR,,0.00,WeatherDisplay:10.37,2013-03-29 20:13:00,
2013-03-29 22:15:00,58.3,57.7,29.80,NNW,338,1.6,1.6,98,0.00,CLR,,0.00,WeatherDisplay:10.37,2013-03-29 20:15:00,
2013-03-29 22:17:00,58.1,57.5,29.80,NNW,338,2.3,2.3,98,0.00,CLR,,0.00,WeatherDisplay:10.37,2013-03-29 20:17:00,
2013-03-29 22:18:00,58.1,57.5,29.80,NNW,338,2.3,2.3,98,0.00,CLR,,0.00,WeatherDisplay:10.37,2013-03-29 20:18:00,
2013-03-29 22:20:00,58.1,57.5,29.80,NNW,338,2.3,2.3,98,0.00,CLR,,0.00,WeatherDisplay:10.37,2013-03-29 20:20:00,
2013-03-29 22:23:00,58.3,57.7,29.80,NNW,338,2.3,2.3,98,0.00,CLR,,0.00,WeatherDisplay:10.37,2013-03-29 20:23:00,
2013-03-29 22:25:00,58.3,57.7,29.80,NNW,338,2.3,2.3,98,0.00,CLR,,0.00,WeatherDisplay:10.37,2013-03-29 20:25:00,
2013-03-29 22:28:00,58.3,57.7,29.80,NNW,338,2.3,2.3,98,0.00,CLR,,0.00,WeatherDisplay:10.37,2013-03-29 20:28:00,
2013-03-29 22:30:00,58.1,57.5,29.80,NNW,338,1.2,0.0,98,0.00,CLR,,0.00,WeatherDisplay:10.37,2013-03-29 20:30:00,
2013-03-29 22:33:00,58.1,57.5,29.80,NNW,338,2.4,2.4,98,0.00,CLR,,0.00,WeatherDisplay:10.37,2013-03-29 20:33:00,
2013-03-29 22:35:00,57.9,57.1,29.80,NNW,338,2.3,2.3,97,0.00,CLR,,0.00,WeatherDisplay:10.37,2013-03-29 20:35:00,
2013-03-29 22:38:00,57.9,57.1,29.80,NNW,338,1.2,1.2,97,0.00,CLR,,0.00,WeatherDisplay:10.37,2013-03-29 20:38:00,
2013-03-29 22:40:00,57.9,57.1,29.80,NNW,338,1.2,0.0,97,0.00,CLR,,0.00,WeatherDisplay:10.37,2013-03-29 20:40:00,
2013-03-29 22:41:00,57.9,57.1,29.80,NNW,338,1.4,0.0,97,0.00,CLR,,0.00,WeatherDisplay:10.37,2013-03-29 20:41:00,
2013-03-29 22:43:00,58.1,57.3,29.80,NNW,338,1.2,1.2,97,0.00,CLR,,0.00,WeatherDisplay:10.37,2013-03-29 20:43:00,
2013-03-29 22:45:00,58.1,57.3,29.80,NNW,338,1.2,0.0,97,0.00,CLR,,0.00,WeatherDisplay:10.37,2013-03-29 20:45:00,
2013-03-29 22:47:00,58.1,57.3,29.80,NNW,338,1.2,0.0,97,0.00,CLR,,0.00,WeatherDisplay:10.37,2013-03-29 20:47:00,
2013-03-29 22:49:00,58.3,57.4,29.80,NNW,338,1.6,1.6,97,0.00,CLR,,0.00,WeatherDisplay:10.37,2013-03-29 20:49:00,
2013-03-29 22:50:00,58.3,57.4,29.80,NNW,338,2.4,2.4,97,0.00,CLR,,0.00,WeatherDisplay:10.37,2013-03-29 20:50:00,
2013-03-29 22:52:00,58.5,57.6,29.80,NNW,338,2.3,2.3,97,0.00,CLR,,0.00,WeatherDisplay:10.37,2013-03-29 20:52:00,
2013-03-29 22:54:00,58.5,57.6,29.80,NNW,338,1.2,1.2,97,0.00,CLR,,0.00,WeatherDisplay:10.37,2013-03-29 20:54:00,
2013-03-29 22:55:00,58.5,57.6,29.80,NNW,338,0.0,0.0,97,0.00,CLR,,0.00,WeatherDisplay:10.37,2013-03-29 20:55:00,
2013-03-29 22:57:00,58.5,57.6,29.80,NNW,338,0.0,0.0,97,0.00,CLR,,0.00,WeatherDisplay:10.37,2013-03-29 20:57:00,
2013-03-29 22:59:00,58.5,57.6,29.80,NNW,338,0.0,0.0,97,0.00,CLR,,0.00,WeatherDisplay:10.37,2013-03-29 20:59:00,
2013-03-29 23:00:00,58.5,57.6,29.80,NNW,338,1.6,0.0,97,0.00,CLR,,0.00,WeatherDisplay:10.37,2013-03-29 21:00:00,
2013-03-29 23:02:00,58.5,57.6,29.80,NNW,338,0.0,0.0,97,0.00,CLR,,0.00,WeatherDisplay:10.37,2013-03-29 21:02:00,
2013-03-29 23:04:00,58.5,57.3,29.80,NNW,338,0.0,0.0,96,0.00,CLR,,0.00,WeatherDisplay:10.37,2013-03-29 21:04:00,
2013-03-29 23:05:00,58.5,57.3,29.80,NNW,338,1.2,1.2,96,0.00,CLR,,0.00,WeatherDisplay:10.37,2013-03-29 21:05:00,
2013-03-29 23:07:00,58.5,57.3,29.80,NNW,338,1.2,1.4,96,0.00,CLR,,0.00,WeatherDisplay:10.37,2013-03-29 21:07:00,
2013-03-29 23:09:00,58.5,57.3,29.77,NNW,338,1.2,0.0,96,0.00,CLR,,0.00,WeatherDisplay:10.37,2013-03-29 21:09:00,
2013-03-29 23:10:00,58.5,57.3,29.77,NNW,338,0.0,0.0,96,0.00,CLR,,0.00,WeatherDisplay:10.37,2013-03-29 21:10:00,
2013-03-29 23:12:00,58.5,57.3,29.77,NNW,338,0.0,0.0,96,0.00,CLR,,0.00,WeatherDisplay:10.37,2013-03-29 21:12:00,
2013-03-29 23:14:00,58.5,57.3,29.77,NNW,338,0.0,0.0,96,0.00,CLR,,0.00,WeatherDisplay:10.37,2013-03-29 21:14:00,
2013-03-29 23:15:00,58.6,57.5,29.77,NNW,338,0.0,0.0,96,0.00,CLR,,0.00,WeatherDisplay:10.37,2013-03-29 21:15:00,
2013-03-29 23:18:00,58.8,58.0,29.77,WSW,248,2.3,2.3,97,0.00,CLR,,0.00,WeatherDisplay:10.37,2013-03-29 21:18:00,
2013-03-29 23:19:00,58.8,58.0,29.77,WSW,248,2.3,0.0,97,0.00,CLR,,0.00,WeatherDisplay:10.37,2013-03-29 21:19:00,
2013-03-29 23:20:00,58.8,58.0,29.77,WSW,248,2.3,0.0,97,0.00,CLR,,0.00,WeatherDisplay:10.37,2013-03-29 21:20:00,
2013-03-29 23:23:00,58.8,58.0,29.77,WNW,292,2.3,2.3,97,0.00,CLR,,0.00,WeatherDisplay:10.37,2013-03-29 21:23:00,
2013-03-29 23:24:00,58.8,58.0,29.80,WSW,248,2.3,2.3,97,0.00,CLR,,0.00,WeatherDisplay:10.37,2013-03-29 21:24:00,
2013-03-29 23:25:00,58.8,58.0,29.80,WSW,248,2.3,2.3,97,0.00,CLR,,0.00,WeatherDisplay:10.37,2013-03-29 21:25:00,
2013-03-29 23:28:00,58.8,58.0,29.80,WSW,248,1.4,1.4,97,0.00,CLR,,0.00,WeatherDisplay:10.37,2013-03-29 21:28:00,
2013-03-29 23:29:00,58.8,58.0,29.80,WSW,248,1.4,1.4,97,0.00,CLR,,0.00,WeatherDisplay:10.37,2013-03-29 21:29:00,
2013-03-29 23:30:00,58.8,58.0,29.80,WSW,248,2.3,2.3,97,0.00,CLR,,0.00,WeatherDisplay:10.37,2013-03-29 21:30:00,
2013-03-29 23:33:00,58.6,57.8,29.80,West,270,2.9,0.0,97,0.00,CLR,,0.00,WeatherDisplay:10.37,2013-03-29 21:33:00,
2013-03-29 23:34:00,58.8,58.0,29.80,West,270,2.4,2.4,97,0.00,CLR,,0.00,WeatherDisplay:10.37,2013-03-29 21:34:00,
2013-03-29 23:35:00,58.8,58.0,29.80,West,270,2.3,2.3,97,0.00,CLR,,0.00,WeatherDisplay:10.37,2013-03-29 21:35:00,
2013-03-29 23:38:00,58.6,57.8,29.80,West,270,0.0,0.0,97,0.00,CLR,,0.00,WeatherDisplay:10.37,2013-03-29 21:38:00,
2013-03-29 23:40:00,58.6,57.8,29.77,West,270,0.0,0.0,97,0.00,CLR,,0.00,WeatherDisplay:10.37,2013-03-29 21:40:00,
2013-03-29 23:43:00,58.6,57.8,29.77,West,270,0.0,0.0,97,0.00,CLR,,0.00,WeatherDisplay:10.37,2013-03-29 21:43:00,
2013-03-29 23:45:00,58.6,57.8,29.77,West,270,1.2,0.0,97,0.00,CLR,,0.00,WeatherDisplay:10.37,2013-03-29 21:45:00,
2013-03-29 23:46:00,58.6,57.8,29.77,West,270,1.2,0.0,97,0.00,CLR,,0.00,WeatherDisplay:10.37,2013-03-29 21:46:00,
2013-03-29 23:48:00,58.6,57.8,29.77,West,270,0.0,0.0,97,0.00,CLR,,0.00,WeatherDisplay:10.37,2013-03-29 21:48:00,
2013-03-29 23:50:00,58.6,57.8,29.77,WNW,292,2.3,2.3,97,0.00,CLR,,0.00,WeatherDisplay:10.37,2013-03-29 21:50:00,
2013-03-29 23:51:00,58.6,57.8,29.77,WNW,292,2.3,2.3,97,0.00,CLR,,0.00,WeatherDisplay:10.37,2013-03-29 21:51:00,
2013-03-29 23:53:00,58.6,57.8,29.77,WNW,292,1.2,0.0,97,0.00,CLR,,0.00,WeatherDisplay:10.37,2013-03-29 21:53:00,
2013-03-29 23:55:00,58.6,57.8,29.77,WNW,292,2.3,2.3,97,0.00,CLR,,0.00,WeatherDisplay:10.37,2013-03-29 21:55:00,
2013-03-29 23:56:00,58.6,57.8,29.77,WNW,292,2.3,2.3,97,0.00,CLR,,0.00,WeatherDisplay:10.37,2013-03-29 21:56:00,
2013-03-29 23:57:00,58.6,57.8,29.77,WNW,292,2.6,2.6,97,0.00,CLR,,0.00,WeatherDisplay:10.37,2013-03-29 21:57:00,
2013-03-29 23:58:00,58.6,57.8,29.77,WNW,292,3.5,3.5,97,0.00,CLR,,0.00,WeatherDisplay:10.37,2013-03-29 21:58:00,